ELY10 KJFK-LLBG

Flight info

Callsign ELY10
Flight time 10h 38m
Altitude 37000
Route MERIT DCT HFD DCT PUT DCT TOPPS N507B ALLRY/M082F370 NATY XETBO/N0459F370 DCT UNLID/M080F370 DCT ARKIL/N0458F370 DCT LIZAD DCT JSY DCT TURDU DCT TADUP DCT TEPRI UN491 POGZI DCT GELTA DCT LUVAL DCT BEGAR DCT TRA DCT GAMSA DCT GEDSO DCT VEKEN DCT NEMEK DCT TUPUS DCT MEDUX UM867 KOGAT DCT ERANA DCT TSL UN130 MES UL609 ALKIS L609 ZUKKO
Aircraft B772/H-SDE2E3FGHIJ4J5LM1OP2RVWXY/LB1D1

Departure

Time 2026-05-06 22:23
Airport John F. Kennedy International Airport (KJFK)

Arrival

Time 2026-05-07 09:02
Airport Ben Gurion International Airport (LLBG)
Time Latitude Longitude Altitude Speed Heading
2026-05-06 21:47 40.64251 -73.77950 26 ft 0 kts 30°
2026-05-06 22:07 40.64233 -73.77964 26 ft 4 kts 30°
2026-05-06 22:07 40.64209 -73.77982 26 ft 4 kts 30°
2026-05-06 22:07 40.64191 -73.77996 25 ft 4 kts 30°
2026-05-06 22:07 40.64167 -73.78013 25 ft 4 kts 23°
2026-05-06 22:08 40.64142 -73.78025 26 ft 4 kts 10°
2026-05-06 22:08 40.64116 -73.78025 26 ft 4 kts 338°
2026-05-06 22:08 40.64095 -73.78011 26 ft 4 kts 331°
2026-05-06 22:08 40.64072 -73.77994 25 ft 4 kts 331°
2026-05-06 22:09 40.64053 -73.77980 25 ft 4 kts 323°
2026-05-06 22:09 40.64036 -73.77957 25 ft 4 kts 297°
2026-05-06 22:09 40.64028 -73.77932 25 ft 4 kts 290°
2026-05-06 22:09 40.64017 -73.77899 26 ft 4 kts 304°
2026-05-06 22:10 40.64002 -73.77879 24 ft 2 kts 330°
2026-05-06 22:10 40.63980 -73.77863 26 ft 4 kts 330°
2026-05-06 22:10 40.63956 -73.77845 25 ft 3 kts 330°
2026-05-06 22:10 40.63937 -73.77828 25 ft 4 kts 306°
2026-05-06 22:11 40.63929 -73.77799 25 ft 4 kts 257°
2026-05-06 22:11 40.63939 -73.77768 24 ft 4 kts 241°
2026-05-06 22:11 40.63950 -73.77741 26 ft 4 kts 241°
2026-05-06 22:11 40.63955 -73.77730 25 ft 0 kts 241°
2026-05-06 22:14 40.63926 -73.77779 24 ft 12 kts 214°
2026-05-06 22:15 40.63873 -73.77771 27 ft 12 kts 152°
2026-05-06 22:15 40.63802 -73.77711 27 ft 12 kts 143°
2026-05-06 22:15 40.63786 -73.77619 28 ft 12 kts 50°
2026-05-06 22:15 40.63854 -73.77556 28 ft 12 kts 32°
2026-05-06 22:16 40.63925 -73.77500 29 ft 12 kts 30°
2026-05-06 22:16 40.63994 -73.77446 27 ft 12 kts 31°
2026-05-06 22:16 40.64066 -73.77390 26 ft 12 kts 29°
2026-05-06 22:16 40.64128 -73.77345 28 ft 8 kts 29°
2026-05-06 22:17 40.64177 -73.77304 29 ft 8 kts 32°
2026-05-06 22:17 40.64227 -73.77266 28 ft 8 kts 31°
2026-05-06 22:17 40.64276 -73.77226 28 ft 8 kts 33°
2026-05-06 22:17 40.64324 -73.77185 26 ft 8 kts 32°
2026-05-06 22:18 40.64378 -73.77143 27 ft 12 kts 30°
2026-05-06 22:18 40.64475 -73.77094 31 ft 17 kts
2026-05-06 22:18 40.64563 -73.77053 29 ft 10 kts 63°
2026-05-06 22:18 40.64580 -73.76965 27 ft 10 kts 71°
2026-05-06 22:19 40.64627 -73.76900 22 ft 10 kts 34°
2026-05-06 22:19 40.64680 -73.76852 25 ft 5 kts 33°
2026-05-06 22:19 40.64713 -73.76827 23 ft 5 kts 30°
2026-05-06 22:19 40.64764 -73.76787 25 ft 10 kts 30°
2026-05-06 22:20 40.64827 -73.76740 31 ft 10 kts 30°
2026-05-06 22:20 40.64892 -73.76690 29 ft 11 kts 31°
2026-05-06 22:20 40.64964 -73.76634 27 ft 13 kts 30°
2026-05-06 22:20 40.65035 -73.76580 29 ft 11 kts 30°
2026-05-06 22:21 40.65086 -73.76532 30 ft 9 kts 45°
2026-05-06 22:21 40.65089 -73.76453 27 ft 9 kts 115°
2026-05-06 22:21 40.65055 -73.76380 27 ft 9 kts 141°
2026-05-06 22:21 40.64992 -73.76385 27 ft 10 kts 203°
2026-05-06 22:22 40.64956 -73.76411 27 ft 0 kts 209°
2026-05-06 22:22 40.64955 -73.76411 27 ft 1 kts 209°
2026-05-06 22:22 40.64807 -73.76523 31 ft 56 kts 210°
2026-05-06 22:22 40.64284 -73.76932 29 ft 116 kts 210°
2026-05-06 22:23 40.63430 -73.77597 31 ft 168 kts 212°
2026-05-06 22:23 40.62409 -73.78427 565 ft 167 kts 212°
2026-05-06 22:23 40.61421 -73.79261 1203 ft 172 kts 212°
2026-05-06 22:23 40.60410 -73.80126 1792 ft 178 kts 212°
2026-05-06 22:24 40.59304 -73.81056 1932 ft 196 kts 208°
2026-05-06 22:24 40.57927 -73.81486 2038 ft 217 kts 174°
2026-05-06 22:24 40.56476 -73.80750 2194 ft 237 kts 142°
2026-05-06 22:24 40.55444 -73.78968 2432 ft 256 kts 112°
2026-05-06 22:25 40.55202 -73.76613 2881 ft 268 kts 83°
2026-05-06 22:25 40.55847 -73.74301 3424 ft 275 kts 56°
2026-05-06 22:25 40.57069 -73.72363 3959 ft 277 kts 48°
2026-05-06 22:25 40.58379 -73.70483 4538 ft 280 kts 47°
2026-05-06 22:26 40.59705 -73.68601 5191 ft 281 kts 47°
2026-05-06 22:26 40.61043 -73.66705 5782 ft 283 kts 47°
2026-05-06 22:26 40.62394 -73.64797 6342 ft 286 kts 47°
2026-05-06 22:26 40.63756 -73.62877 6900 ft 288 kts 47°
2026-05-06 22:27 40.65133 -73.60940 7446 ft 291 kts 47°
2026-05-06 22:27 40.66522 -73.58988 7992 ft 293 kts 47°
2026-05-06 22:27 40.67923 -73.57019 8508 ft 295 kts 47°
2026-05-06 22:27 40.69334 -73.55038 9027 ft 298 kts 47°
2026-05-06 22:28 40.70755 -73.53043 9534 ft 300 kts 47°
2026-05-06 22:28 40.72188 -73.51032 10032 ft 302 kts 47°
2026-05-06 22:28 40.73785 -73.49282 10234 ft 311 kts 26°
2026-05-06 22:28 40.75858 -73.48315 10371 ft 324 kts 15°
2026-05-06 22:29 40.78077 -73.47427 10519 ft 343 kts 18°
2026-05-06 22:29 40.80389 -73.46386 10816 ft 358 kts 19°
2026-05-06 22:29 40.82750 -73.45225 11328 ft 367 kts 21°
2026-05-06 22:29 40.85140 -73.43974 12010 ft 371 kts 22°
2026-05-06 22:30 40.87535 -73.42670 12758 ft 374 kts 22°
2026-05-06 22:30 40.89949 -73.41326 13506 ft 378 kts 23°
2026-05-06 22:30 40.92382 -73.39954 14222 ft 382 kts 23°
2026-05-06 22:30 40.94837 -73.38559 14932 ft 386 kts 23°
2026-05-06 22:31 40.97321 -73.37145 15634 ft 390 kts 23°
2026-05-06 22:31 40.99828 -73.35715 16323 ft 394 kts 23°
2026-05-06 22:31 41.02361 -73.34270 17000 ft 398 kts 23°
2026-05-06 22:31 41.04919 -73.32809 17673 ft 402 kts 23°
2026-05-06 22:32 41.07505 -73.31331 18337 ft 406 kts 23°
2026-05-06 22:32 41.10114 -73.29840 18997 ft 410 kts 23°
2026-05-06 22:32 41.12749 -73.28332 19638 ft 414 kts 23°
2026-05-06 22:32 41.15407 -73.26810 20269 ft 418 kts 23°
2026-05-06 22:33 41.18093 -73.25270 20887 ft 422 kts 23°
2026-05-06 22:33 41.20802 -73.23716 21484 ft 426 kts 23°
2026-05-06 22:33 41.23528 -73.22151 22077 ft 430 kts 23°
2026-05-06 22:33 41.26288 -73.20564 22649 ft 434 kts 23°
2026-05-06 22:34 41.29065 -73.18969 23207 ft 437 kts 23°
2026-05-06 22:34 41.31875 -73.17364 23750 ft 441 kts 22°
2026-05-06 22:34 41.34690 -73.15721 24251 ft 442 kts 26°
2026-05-06 22:34 41.37305 -73.13527 24612 ft 448 kts 40°
2026-05-06 22:35 41.39521 -73.10592 25089 ft 451 kts 51°
2026-05-06 22:35 41.41279 -73.07139 25579 ft 451 kts 60°
2026-05-06 22:35 41.42839 -73.03488 25998 ft 455 kts 61°
2026-05-06 22:35 41.44413 -72.99807 26403 ft 459 kts 60°
2026-05-06 22:36 41.46008 -72.96112 26853 ft 461 kts 60°
2026-05-06 22:36 41.47622 -72.92403 27302 ft 463 kts 60°
2026-05-06 22:36 41.49250 -72.88683 27715 ft 465 kts 60°
2026-05-06 22:36 41.50890 -72.84946 28091 ft 468 kts 60°
2026-05-06 22:37 41.52542 -72.81183 28443 ft 471 kts 60°
2026-05-06 22:37 41.54199 -72.77395 28771 ft 474 kts 60°
2026-05-06 22:37 41.55866 -72.73583 29117 ft 477 kts 60°
2026-05-06 22:37 41.57517 -72.69804 29440 ft 479 kts 60°
2026-05-06 22:38 41.59222 -72.65900 29759 ft 481 kts 60°
2026-05-06 22:38 41.60889 -72.62079 30059 ft 483 kts 60°
2026-05-06 22:38 41.62585 -72.58192 30340 ft 486 kts 60°
2026-05-06 22:38 41.64287 -72.54286 30603 ft 488 kts 60°
2026-05-06 22:39 41.66012 -72.50370 30874 ft 490 kts 60°
2026-05-06 22:39 41.67764 -72.46449 31129 ft 492 kts 59°
2026-05-06 22:39 41.69535 -72.42530 31367 ft 493 kts 59°
2026-05-06 22:39 41.71321 -72.38595 31590 ft 495 kts 59°
2026-05-06 22:40 41.73110 -72.34649 31803 ft 497 kts 59°
2026-05-06 22:40 41.74906 -72.30686 31992 ft 498 kts 59°
2026-05-06 22:40 41.76699 -72.26709 32217 ft 499 kts 59°
2026-05-06 22:40 41.78484 -72.22726 32493 ft 499 kts 59°
2026-05-06 22:41 41.82035 -72.14763 33058 ft 497 kts 59°
2026-05-06 22:41 41.83804 -72.10788 33308 ft 496 kts 59°
2026-05-06 22:41 41.85572 -72.06813 33562 ft 496 kts 59°
2026-05-06 22:42 41.87337 -72.02840 33806 ft 495 kts 59°
2026-05-06 22:42 41.89099 -71.98870 34060 ft 495 kts 59°
2026-05-06 22:42 41.90857 -71.94904 34322 ft 494 kts 59°
2026-05-06 22:42 41.92614 -71.90939 34562 ft 494 kts 59°
2026-05-06 22:43 41.94507 -71.87098 34787 ft 494 kts 53°
2026-05-06 22:43 41.96686 -71.83542 35030 ft 493 kts 48°
2026-05-06 22:43 41.99082 -71.80240 35286 ft 493 kts 42°
2026-05-06 22:43 42.01684 -71.77241 35496 ft 492 kts 40°
2026-05-06 22:44 42.04324 -71.74301 35724 ft 492 kts 39°
2026-05-06 22:44 42.06963 -71.71379 35944 ft 492 kts 39°
2026-05-06 22:44 42.09605 -71.68448 36167 ft 491 kts 40°
2026-05-06 22:44 42.12235 -71.65511 36374 ft 491 kts 40°
2026-05-06 22:45 42.14857 -71.62565 36547 ft 491 kts 40°
2026-05-06 22:45 42.17477 -71.59606 36683 ft 493 kts 40°
2026-05-06 22:45 42.20109 -71.56623 36730 ft 494 kts 40°
2026-05-06 22:46 42.25364 -71.50650 36771 ft 493 kts 40°
2026-05-06 22:46 42.30590 -71.44695 36778 ft 490 kts 40°
2026-05-06 22:47 42.35784 -71.38767 36777 ft 488 kts 40°
2026-05-06 22:47 42.40968 -71.32837 36780 ft 488 kts 40°
2026-05-06 22:48 42.46156 -71.26890 36779 ft 489 kts 40°
2026-05-06 22:48 42.51356 -71.20917 36778 ft 490 kts 40°
2026-05-06 22:49 42.56561 -71.14923 36780 ft 491 kts 40°
2026-05-06 22:49 42.61733 -71.08955 36779 ft 492 kts 40°
2026-05-06 22:50 42.66944 -71.02926 36778 ft 492 kts 40°
2026-05-06 22:50 42.72155 -70.96885 36777 ft 493 kts 40°
2026-05-06 22:51 42.77396 -70.90796 36778 ft 493 kts 40°
2026-05-06 22:51 42.82579 -70.84759 36777 ft 493 kts 40°
2026-05-06 22:52 42.87783 -70.78684 36775 ft 492 kts 41°
2026-05-06 22:52 42.92980 -70.72603 36776 ft 492 kts 41°
2026-05-06 22:53 42.98167 -70.66520 36777 ft 492 kts 41°
2026-05-06 22:53 43.03350 -70.60427 36776 ft 491 kts 41°
2026-05-06 22:54 43.08529 -70.54325 36778 ft 491 kts 41°
2026-05-06 22:54 43.13703 -70.48215 36778 ft 491 kts 41°
2026-05-06 22:55 43.18873 -70.42095 36778 ft 491 kts 41°
2026-05-06 22:55 43.24039 -70.35966 36779 ft 491 kts 41°
2026-05-06 22:56 43.29206 -70.29822 36778 ft 491 kts 41°
2026-05-06 22:56 43.34369 -70.23668 36778 ft 492 kts 41°
2026-05-06 22:57 43.39532 -70.17499 36778 ft 492 kts 41°
2026-05-06 22:57 43.44692 -70.11320 36778 ft 492 kts 41°
2026-05-06 22:58 43.49846 -70.05133 36778 ft 492 kts 41°
2026-05-06 22:58 43.54998 -69.98934 36777 ft 492 kts 41°
2026-05-06 22:59 43.60113 -69.92764 36778 ft 492 kts 41°
2026-05-06 22:59 43.65257 -69.86546 36778 ft 492 kts 41°
2026-05-06 23:00 43.70398 -69.80317 36778 ft 492 kts 41°
2026-05-06 23:00 43.75536 -69.74075 36778 ft 492 kts 41°
2026-05-06 23:01 43.80670 -69.67825 36777 ft 492 kts 41°
2026-05-06 23:01 43.85802 -69.61561 36779 ft 492 kts 41°
2026-05-06 23:02 43.90101 -69.56303 36778 ft 492 kts 41°
2026-05-06 23:02 43.95226 -69.50021 36777 ft 492 kts 41°
2026-05-06 23:03 44.00345 -69.43730 36778 ft 492 kts 41°
2026-05-06 23:03 44.05465 -69.37424 36778 ft 492 kts 41°
2026-05-06 23:04 44.10580 -69.31108 36775 ft 492 kts 42°
2026-05-06 23:04 44.15695 -69.24778 36778 ft 492 kts 42°
2026-05-06 23:05 44.20803 -69.18440 36778 ft 492 kts 42°
2026-05-06 23:05 44.25874 -69.12134 36776 ft 492 kts 42°
2026-05-06 23:06 44.31009 -69.05732 36778 ft 492 kts 42°
2026-05-06 23:06 44.36072 -68.99405 36778 ft 492 kts 42°
2026-05-06 23:07 44.41198 -68.92982 36775 ft 492 kts 42°
2026-05-06 23:07 44.46290 -68.86587 36778 ft 492 kts 42°
2026-05-06 23:08 44.51344 -68.80226 36778 ft 492 kts 42°
2026-05-06 23:08 44.56424 -68.73815 36778 ft 492 kts 42°
2026-05-06 23:09 44.61505 -68.67386 36777 ft 492 kts 42°
2026-05-06 23:09 44.66582 -68.60948 36778 ft 492 kts 42°
2026-05-06 23:10 44.71657 -68.54496 36775 ft 492 kts 42°
2026-05-06 23:10 44.76726 -68.48035 36779 ft 492 kts 42°
2026-05-06 23:11 44.81793 -68.41562 36778 ft 492 kts 42°
2026-05-06 23:11 44.86854 -68.35079 36777 ft 492 kts 42°
2026-05-06 23:12 44.91913 -68.28583 36777 ft 492 kts 43°
2026-05-06 23:12 44.96966 -68.22078 36778 ft 492 kts 43°
2026-05-06 23:13 45.02019 -68.15558 36775 ft 492 kts 43°
2026-05-06 23:13 45.07065 -68.09030 36779 ft 492 kts 43°
2026-05-06 23:14 45.12109 -68.02488 36778 ft 492 kts 43°
2026-05-06 23:14 45.17148 -67.95936 36778 ft 492 kts 43°
2026-05-06 23:15 45.22183 -67.89373 36778 ft 492 kts 43°
2026-05-06 23:15 45.27216 -67.82795 36778 ft 492 kts 43°
2026-05-06 23:16 45.32205 -67.76149 36773 ft 492 kts 47°
2026-05-06 23:16 45.36448 -67.68554 36774 ft 491 kts 58°
2026-05-06 23:17 45.40005 -67.60283 36780 ft 490 kts 59°
2026-05-06 23:17 45.43540 -67.51968 36777 ft 491 kts 59°
2026-05-06 23:18 45.47071 -67.43719 36778 ft 491 kts 59°
2026-05-06 23:18 45.50665 -67.35356 36778 ft 491 kts 59°
2026-05-06 23:19 45.54232 -67.27046 36777 ft 491 kts 59°
2026-05-06 23:19 45.57771 -67.18776 36776 ft 491 kts 59°
2026-05-06 23:20 45.61325 -67.10442 36778 ft 491 kts 59°
2026-05-06 23:20 45.64872 -67.02099 36778 ft 491 kts 59°
2026-05-06 23:21 45.68413 -66.93747 36777 ft 491 kts 59°
2026-05-06 23:21 45.71947 -66.85384 36777 ft 491 kts 59°
2026-05-06 23:22 45.75475 -66.77012 36779 ft 491 kts 59°
2026-05-06 23:22 45.78996 -66.68630 36777 ft 491 kts 59°
2026-05-06 23:23 45.82509 -66.60242 36778 ft 491 kts 59°
2026-05-06 23:23 45.86017 -66.51842 36778 ft 491 kts 59°
2026-05-06 23:24 45.89521 -66.43424 36777 ft 491 kts 59°
2026-05-06 23:24 45.93018 -66.34999 36776 ft 491 kts 59°
2026-05-06 23:25 45.96508 -66.26564 36777 ft 491 kts 60°
2026-05-06 23:25 45.99994 -66.18115 36777 ft 491 kts 60°
2026-05-06 23:26 46.03471 -66.09662 36778 ft 491 kts 60°
2026-05-06 23:26 46.06945 -66.01188 36777 ft 491 kts 60°
2026-05-06 23:27 46.10410 -65.92711 36778 ft 491 kts 60°
2026-05-06 23:27 46.13846 -65.84280 36778 ft 491 kts 60°
2026-05-06 23:28 46.17299 -65.75783 36778 ft 491 kts 60°
2026-05-06 23:28 46.20747 -65.67270 36778 ft 491 kts 60°
2026-05-06 23:29 46.24188 -65.58747 36777 ft 491 kts 60°
2026-05-06 23:29 46.27623 -65.50214 36778 ft 491 kts 60°
2026-05-06 23:30 46.31051 -65.41671 36777 ft 491 kts 60°
2026-05-06 23:30 46.34473 -65.33117 36778 ft 491 kts 60°
2026-05-06 23:31 46.37886 -65.24559 36777 ft 491 kts 60°
2026-05-06 23:31 46.41297 -65.15978 36779 ft 491 kts 60°
2026-05-06 23:32 46.44699 -65.07394 36778 ft 491 kts 60°
2026-05-06 23:32 46.48093 -64.98803 36777 ft 491 kts 60°
2026-05-06 23:33 46.51484 -64.90193 36778 ft 491 kts 60°
2026-05-06 23:33 46.54868 -64.81573 36777 ft 491 kts 61°
2026-05-06 23:34 46.58246 -64.72942 36778 ft 491 kts 61°
2026-05-06 23:34 46.61615 -64.64304 36777 ft 491 kts 61°
2026-05-06 23:35 46.64980 -64.55651 36778 ft 491 kts 61°
2026-05-06 23:35 46.68337 -64.46991 36778 ft 491 kts 61°
2026-05-06 23:36 46.71687 -64.38322 36778 ft 491 kts 61°
2026-05-06 23:36 46.75009 -64.29696 36777 ft 491 kts 61°
2026-05-06 23:37 46.78347 -64.21003 36778 ft 491 kts 61°
2026-05-06 23:37 46.81677 -64.12301 36778 ft 491 kts 61°
2026-05-06 23:38 46.85002 -64.03584 36777 ft 491 kts 61°
2026-05-06 23:38 46.88322 -63.94853 36777 ft 491 kts 61°
2026-05-06 23:39 46.91632 -63.86120 36776 ft 491 kts 62°
2026-05-06 23:39 46.94937 -63.77371 36777 ft 491 kts 62°
2026-05-06 23:40 46.98235 -63.68614 36777 ft 491 kts 62°
2026-05-06 23:40 47.01525 -63.59847 36778 ft 491 kts 62°
2026-05-06 23:41 47.04812 -63.51061 36777 ft 491 kts 62°
2026-05-06 23:41 47.08090 -63.42271 36777 ft 491 kts 62°
2026-05-06 23:42 47.11361 -63.33470 36778 ft 491 kts 62°
2026-05-06 23:42 47.14625 -63.24657 36778 ft 491 kts 62°
2026-05-06 23:43 47.17882 -63.15836 36777 ft 491 kts 62°
2026-05-06 23:43 47.21132 -63.07003 36778 ft 491 kts 62°
2026-05-06 23:44 47.24377 -62.98156 36778 ft 491 kts 62°
2026-05-06 23:44 47.27616 -62.89296 36778 ft 491 kts 62°
2026-05-06 23:45 47.30847 -62.80429 36777 ft 491 kts 62°
2026-05-06 23:45 47.34071 -62.71550 36778 ft 491 kts 62°
2026-05-06 23:46 47.37286 -62.62665 36777 ft 491 kts 62°
2026-05-06 23:46 47.40498 -62.53761 36777 ft 491 kts 62°
2026-05-06 23:47 47.43701 -62.44852 36778 ft 491 kts 63°
2026-05-06 23:47 47.46356 -62.37442 36777 ft 491 kts 63°
2026-05-06 23:48 47.49548 -62.28509 36777 ft 491 kts 63°
2026-05-06 23:48 47.52731 -62.19568 36777 ft 491 kts 63°
2026-05-06 23:49 47.55908 -62.10616 36778 ft 491 kts 63°
2026-05-06 23:49 47.59077 -62.01655 36778 ft 491 kts 63°
2026-05-06 23:50 47.62240 -61.92680 36778 ft 491 kts 63°
2026-05-06 23:50 47.66970 -61.79200 36779 ft 491 kts 63°
2026-05-06 23:51 47.70113 -61.70205 36778 ft 491 kts 63°
2026-05-06 23:51 47.73252 -61.61190 36778 ft 491 kts 63°
2026-05-06 23:52 47.76382 -61.52170 36778 ft 491 kts 63°
2026-05-06 23:52 47.79486 -61.43195 36777 ft 491 kts 63°
2026-05-06 23:53 47.82601 -61.34155 36777 ft 491 kts 63°
2026-05-06 23:53 47.85712 -61.25098 36778 ft 491 kts 63°
2026-05-06 23:54 47.88814 -61.16034 36776 ft 491 kts 63°
2026-05-06 23:54 47.91908 -61.06960 36778 ft 491 kts 63°
2026-05-06 23:55 47.94998 -60.97869 36778 ft 491 kts 64°
2026-05-06 23:55 47.98076 -60.88777 36778 ft 491 kts 64°
2026-05-06 23:56 48.01151 -60.79666 36778 ft 491 kts 64°
2026-05-06 23:56 48.04217 -60.70549 36778 ft 491 kts 64°
2026-05-06 23:57 48.07275 -60.61422 36777 ft 491 kts 64°
2026-05-06 23:57 48.10328 -60.52277 36778 ft 491 kts 64°
2026-05-06 23:58 48.13372 -60.43126 36777 ft 491 kts 64°
2026-05-06 23:58 48.16409 -60.33966 36777 ft 491 kts 64°
2026-05-06 23:59 48.19439 -60.24793 36777 ft 491 kts 64°
2026-05-06 23:59 48.22460 -60.15612 36776 ft 491 kts 64°
2026-05-07 00:00 48.25477 -60.06415 36779 ft 491 kts 64°
2026-05-07 00:00 48.28484 -59.97210 36777 ft 491 kts 64°
2026-05-07 00:01 48.31484 -59.87996 36778 ft 491 kts 64°
2026-05-07 00:01 48.34477 -59.78771 36777 ft 491 kts 64°
2026-05-07 00:02 48.37462 -59.69535 36778 ft 491 kts 64°
2026-05-07 00:02 48.40440 -59.60287 36778 ft 491 kts 65°
2026-05-07 00:03 48.43413 -59.51023 36776 ft 491 kts 65°
2026-05-07 00:03 48.46376 -59.41754 36778 ft 491 kts 65°
2026-05-07 00:04 48.49331 -59.32476 36777 ft 491 kts 65°
2026-05-07 00:04 48.52278 -59.23190 36779 ft 491 kts 65°
2026-05-07 00:05 48.55220 -59.13882 36775 ft 491 kts 65°
2026-05-07 00:05 48.58130 -59.04645 36779 ft 491 kts 65°
2026-05-07 00:06 48.61059 -58.95312 36778 ft 491 kts 65°
2026-05-07 00:06 48.63978 -58.85976 36777 ft 491 kts 65°
2026-05-07 00:07 48.66886 -58.76639 36777 ft 491 kts 65°
2026-05-07 00:07 48.69790 -58.67281 36777 ft 491 kts 65°
2026-05-07 00:08 48.72686 -58.57915 36778 ft 491 kts 65°
2026-05-07 00:08 48.75572 -58.48544 36780 ft 491 kts 65°
2026-05-07 00:09 48.78453 -58.39155 36777 ft 491 kts 65°
2026-05-07 00:09 48.81326 -58.29752 36775 ft 491 kts 65°
2026-05-07 00:10 48.84192 -58.20341 36778 ft 491 kts 66°
2026-05-07 00:10 48.87049 -58.10923 36778 ft 491 kts 66°
2026-05-07 00:11 48.89898 -58.01495 36777 ft 491 kts 66°
2026-05-07 00:11 48.92739 -57.92054 36777 ft 491 kts 66°
2026-05-07 00:12 48.95574 -57.82601 36777 ft 491 kts 66°
2026-05-07 00:12 48.98400 -57.73138 36778 ft 491 kts 66°
2026-05-07 00:13 49.01200 -57.63732 36776 ft 491 kts 66°
2026-05-07 00:13 49.04009 -57.54252 36780 ft 491 kts 66°
2026-05-07 00:14 49.06812 -57.44758 36775 ft 491 kts 66°
2026-05-07 00:14 49.09608 -57.35250 36778 ft 491 kts 66°
2026-05-07 00:15 49.12396 -57.25733 36776 ft 491 kts 66°
2026-05-07 00:15 49.15175 -57.16210 36778 ft 491 kts 66°
2026-05-07 00:16 49.17946 -57.06676 36778 ft 491 kts 66°
2026-05-07 00:16 49.20711 -56.97124 36776 ft 491 kts 66°
2026-05-07 00:17 49.23467 -56.87567 36777 ft 491 kts 67°
2026-05-07 00:17 49.26214 -56.78001 36779 ft 491 kts 67°
2026-05-07 00:18 49.28953 -56.68425 36778 ft 491 kts 67°
2026-05-07 00:18 49.31685 -56.58837 36777 ft 491 kts 67°
2026-05-07 00:19 49.34409 -56.49237 36778 ft 491 kts 67°
2026-05-07 00:19 49.37125 -56.39628 36778 ft 491 kts 67°
2026-05-07 00:20 49.39833 -56.30008 36777 ft 491 kts 67°
2026-05-07 00:20 49.42534 -56.20373 36778 ft 491 kts 67°
2026-05-07 00:21 49.45225 -56.10735 36778 ft 491 kts 67°
2026-05-07 00:21 49.47908 -56.01086 36777 ft 491 kts 67°
2026-05-07 00:22 49.50585 -55.91419 36776 ft 491 kts 68°
2026-05-07 00:22 49.53252 -55.81748 36779 ft 491 kts 68°
2026-05-07 00:23 49.55913 -55.72061 36776 ft 491 kts 68°
2026-05-07 00:23 49.58546 -55.62431 36782 ft 491 kts 68°
2026-05-07 00:24 49.61207 -55.52664 36776 ft 491 kts 68°
2026-05-07 00:24 49.63844 -55.42946 36778 ft 491 kts 68°
2026-05-07 00:25 49.66453 -55.33287 36777 ft 491 kts 68°
2026-05-07 00:25 49.69070 -55.23557 36778 ft 491 kts 68°
2026-05-07 00:26 49.71680 -55.13814 36777 ft 491 kts 68°
2026-05-07 00:26 49.74282 -55.04062 36778 ft 491 kts 68°
2026-05-07 00:27 49.76876 -54.94296 36778 ft 491 kts 68°
2026-05-07 00:27 49.79463 -54.84516 36778 ft 491 kts 68°
2026-05-07 00:28 49.82039 -54.74734 36776 ft 491 kts 68°
2026-05-07 00:28 49.84610 -54.64933 36778 ft 491 kts 68°
2026-05-07 00:29 49.87171 -54.55127 36778 ft 491 kts 69°
2026-05-07 00:30 49.92269 -54.35478 36778 ft 491 kts 69°
2026-05-07 00:30 49.94805 -54.25639 36776 ft 491 kts 69°
2026-05-07 00:31 49.97333 -54.15791 36778 ft 491 kts 69°
2026-05-07 00:31 49.99852 -54.05935 36778 ft 491 kts 69°
2026-05-07 00:32 50.02364 -53.96061 36777 ft 491 kts 69°
2026-05-07 00:32 50.04866 -53.86183 36777 ft 491 kts 69°
2026-05-07 00:33 50.07359 -53.76299 36777 ft 491 kts 69°
2026-05-07 00:33 50.09845 -53.66398 36778 ft 491 kts 69°
2026-05-07 00:34 50.11905 -53.58161 36778 ft 491 kts 69°
2026-05-07 00:34 50.14376 -53.48244 36777 ft 491 kts 69°
2026-05-07 00:35 50.16838 -53.38315 36776 ft 491 kts 69°
2026-05-07 00:35 50.19688 -53.26763 36778 ft 491 kts 69°
2026-05-07 00:36 50.21735 -53.18431 36779 ft 491 kts 70°
2026-05-07 00:36 50.24172 -53.08469 36778 ft 491 kts 70°
2026-05-07 00:37 50.26600 -52.98502 36779 ft 491 kts 70°
2026-05-07 00:37 50.29019 -52.88522 36777 ft 491 kts 70°
2026-05-07 00:38 50.31428 -52.78539 36777 ft 491 kts 70°
2026-05-07 00:38 50.33832 -52.68534 36777 ft 491 kts 70°
2026-05-07 00:39 50.36224 -52.58529 36779 ft 491 kts 70°
2026-05-07 00:39 50.38594 -52.48575 36778 ft 491 kts 70°
2026-05-07 00:40 50.40986 -52.38479 36776 ft 491 kts 70°
2026-05-07 00:40 50.43353 -52.28443 36777 ft 491 kts 70°
2026-05-07 00:41 50.45696 -52.18461 36777 ft 491 kts 70°
2026-05-07 00:41 50.48046 -52.08405 36778 ft 491 kts 70°
2026-05-07 00:42 50.50393 -51.98335 36777 ft 491 kts 70°
2026-05-07 00:42 50.52929 -51.88381 36778 ft 491 kts 68°
2026-05-07 00:43 50.55561 -51.78474 36776 ft 491 kts 68°
2026-05-07 00:43 50.58162 -51.68549 36778 ft 491 kts 68°
2026-05-07 00:44 50.60730 -51.58590 36779 ft 491 kts 69°
2026-05-07 00:44 50.63281 -51.48616 36778 ft 491 kts 69°
2026-05-07 00:45 50.65824 -51.38629 36777 ft 491 kts 69°
2026-05-07 00:45 50.68358 -51.28638 36778 ft 491 kts 69°
2026-05-07 00:46 50.70886 -51.18634 36778 ft 491 kts 69°
2026-05-07 00:46 50.73404 -51.08619 36778 ft 491 kts 69°
2026-05-07 00:47 50.75915 -50.98591 36778 ft 491 kts 69°
2026-05-07 00:47 50.78400 -50.88622 36778 ft 491 kts 69°
2026-05-07 00:48 50.80891 -50.78580 36777 ft 491 kts 69°
2026-05-07 00:48 50.83376 -50.68522 36777 ft 491 kts 69°
2026-05-07 00:49 50.85851 -50.58455 36777 ft 491 kts 69°
2026-05-07 00:49 50.88319 -50.48372 36778 ft 491 kts 69°
2026-05-07 00:50 50.90776 -50.38285 36778 ft 491 kts 69°
2026-05-07 00:50 50.93224 -50.28189 36778 ft 491 kts 70°
2026-05-07 00:51 50.95665 -50.18078 36778 ft 491 kts 70°
2026-05-07 00:51 50.98097 -50.07962 36778 ft 491 kts 70°
2026-05-07 00:52 51.00391 -49.97766 36774 ft 490 kts 76°
2026-05-07 00:52 51.01940 -49.87232 36782 ft 490 kts 78°
2026-05-07 00:53 51.03401 -49.76669 36777 ft 490 kts 78°
2026-05-07 00:53 51.04879 -49.66096 36779 ft 490 kts 78°
2026-05-07 00:54 51.06373 -49.55521 36778 ft 490 kts 78°
2026-05-07 00:54 51.07865 -49.44942 36777 ft 490 kts 78°
2026-05-07 00:55 51.09338 -49.34424 36777 ft 490 kts 78°
2026-05-07 00:55 51.10809 -49.23832 36778 ft 490 kts 78°
2026-05-07 00:56 51.12270 -49.13237 36777 ft 490 kts 78°
2026-05-07 00:56 51.13721 -49.02637 36779 ft 490 kts 78°
2026-05-07 00:57 51.15163 -48.92027 36778 ft 490 kts 78°
2026-05-07 00:57 51.16594 -48.81419 36776 ft 490 kts 78°
2026-05-07 00:58 51.18016 -48.70796 36776 ft 490 kts 78°
2026-05-07 00:58 51.19428 -48.60174 36776 ft 490 kts 79°
2026-05-07 00:59 51.21529 -48.44221 36777 ft 490 kts 79°
2026-05-07 01:00 51.22917 -48.33580 36777 ft 490 kts 79°
2026-05-07 01:00 51.24296 -48.22930 36777 ft 490 kts 79°
2026-05-07 01:01 51.25664 -48.12280 36777 ft 490 kts 79°
2026-05-07 01:01 51.27024 -48.01617 36779 ft 490 kts 79°
2026-05-07 01:02 51.28373 -47.90951 36777 ft 490 kts 79°
2026-05-07 01:02 51.29713 -47.80275 36777 ft 490 kts 79°
2026-05-07 01:03 51.31034 -47.69670 36777 ft 490 kts 79°
2026-05-07 01:03 51.32355 -47.58980 36776 ft 490 kts 79°
2026-05-07 01:04 51.33666 -47.48293 36777 ft 490 kts 79°
2026-05-07 01:04 51.34967 -47.37591 36776 ft 490 kts 79°
2026-05-07 01:05 51.36258 -47.26890 36777 ft 490 kts 80°
2026-05-07 01:05 51.37539 -47.16185 36777 ft 490 kts 80°
2026-05-07 01:06 51.38811 -47.05465 36777 ft 490 kts 80°
2026-05-07 01:06 51.40073 -46.94747 36777 ft 490 kts 80°
2026-05-07 01:07 51.41325 -46.84024 36778 ft 490 kts 80°
2026-05-07 01:07 51.42567 -46.73291 36776 ft 490 kts 80°
2026-05-07 01:08 51.43800 -46.62548 36777 ft 490 kts 80°
2026-05-07 01:08 51.45022 -46.51810 36777 ft 490 kts 80°
2026-05-07 01:09 51.46234 -46.41063 36776 ft 490 kts 81°
2026-05-07 01:09 51.47438 -46.30304 36779 ft 490 kts 81°
2026-05-07 01:10 51.48630 -46.19548 36778 ft 490 kts 81°
2026-05-07 01:10 51.49814 -46.08780 36779 ft 490 kts 81°
2026-05-07 01:11 51.50987 -45.98012 36776 ft 490 kts 81°
2026-05-07 01:11 51.52150 -45.87238 36777 ft 490 kts 81°
2026-05-07 01:12 51.53304 -45.76453 36776 ft 490 kts 81°
2026-05-07 01:12 51.54447 -45.65668 36777 ft 490 kts 81°
2026-05-07 01:13 51.55581 -45.54872 36777 ft 490 kts 81°
2026-05-07 01:13 51.56705 -45.44082 36777 ft 490 kts 81°
2026-05-07 01:14 51.57819 -45.33277 36777 ft 490 kts 81°
2026-05-07 01:14 51.58923 -45.22467 36777 ft 490 kts 81°
2026-05-07 01:15 51.60016 -45.11661 36777 ft 490 kts 81°
2026-05-07 01:15 51.61100 -45.00845 36776 ft 490 kts 82°
2026-05-07 01:16 51.62167 -44.90097 36779 ft 490 kts 82°
2026-05-07 01:16 51.63238 -44.79195 36777 ft 490 kts 82°
2026-05-07 01:17 51.64285 -44.68438 36779 ft 490 kts 82°
2026-05-07 01:17 51.65329 -44.57605 36776 ft 490 kts 82°
2026-05-07 01:18 51.66363 -44.46767 36777 ft 490 kts 82°
2026-05-07 01:18 51.67387 -44.35922 36777 ft 490 kts 82°
2026-05-07 01:19 51.68401 -44.25067 36778 ft 490 kts 82°
2026-05-07 01:19 51.69404 -44.14222 36777 ft 490 kts 82°
2026-05-07 01:20 51.70399 -44.03355 36778 ft 490 kts 82°
2026-05-07 01:20 51.71382 -43.92498 36778 ft 490 kts 82°
2026-05-07 01:21 51.72356 -43.81630 36776 ft 490 kts 82°
2026-05-07 01:21 51.73320 -43.70762 36776 ft 490 kts 83°
2026-05-07 01:22 51.74274 -43.59881 36776 ft 490 kts 83°
2026-05-07 01:22 51.75217 -43.49004 36778 ft 490 kts 83°
2026-05-07 01:23 51.75994 -43.39959 36777 ft 490 kts 83°
2026-05-07 01:23 51.76920 -43.29068 36777 ft 490 kts 83°
2026-05-07 01:24 51.77835 -43.18177 36776 ft 490 kts 83°
2026-05-07 01:24 51.78739 -43.07285 36778 ft 490 kts 83°
2026-05-07 01:25 51.79635 -42.96378 36776 ft 490 kts 83°
2026-05-07 01:25 51.80519 -42.85480 36776 ft 490 kts 83°
2026-05-07 01:26 51.81394 -42.74569 36777 ft 489 kts 83°
2026-05-07 01:26 51.82259 -42.63658 36778 ft 489 kts 83°
2026-05-07 01:27 51.83113 -42.52743 36778 ft 489 kts 83°
2026-05-07 01:27 51.83957 -42.41824 36776 ft 489 kts 84°
2026-05-07 01:28 51.84792 -42.30898 36777 ft 489 kts 84°
2026-05-07 01:28 51.85616 -42.19970 36776 ft 489 kts 84°
2026-05-07 01:29 51.86424 -42.09113 36778 ft 489 kts 84°
2026-05-07 01:29 51.87228 -41.98179 36777 ft 489 kts 84°
2026-05-07 01:30 51.88022 -41.87238 36776 ft 489 kts 84°
2026-05-07 01:30 51.88805 -41.76299 36778 ft 489 kts 84°
2026-05-07 01:31 51.89578 -41.65357 36776 ft 489 kts 84°
2026-05-07 01:31 51.90342 -41.54404 36779 ft 489 kts 84°
2026-05-07 01:32 51.91095 -41.43455 36776 ft 489 kts 84°
2026-05-07 01:32 51.91838 -41.32498 36778 ft 489 kts 84°
2026-05-07 01:33 51.92570 -41.21541 36778 ft 489 kts 84°
2026-05-07 01:33 51.93293 -41.10575 36778 ft 489 kts 84°
2026-05-07 01:34 51.94005 -40.99611 36777 ft 489 kts 85°
2026-05-07 01:34 51.94707 -40.88647 36779 ft 489 kts 85°
2026-05-07 01:35 51.95399 -40.77674 36777 ft 489 kts 85°
2026-05-07 01:35 51.96080 -40.66697 36777 ft 489 kts 85°
2026-05-07 01:36 51.96752 -40.55719 36778 ft 489 kts 85°
2026-05-07 01:36 51.97413 -40.44744 36778 ft 489 kts 85°
2026-05-07 01:37 51.98059 -40.33834 36779 ft 489 kts 85°
2026-05-07 01:37 51.98700 -40.22848 36778 ft 489 kts 85°
2026-05-07 01:38 51.99332 -40.11856 36777 ft 489 kts 85°
2026-05-07 01:38 51.99978 -40.00873 36777 ft 489 kts 83°
2026-05-07 01:39 52.01339 -39.90051 36781 ft 489 kts 77°
2026-05-07 01:39 52.02937 -39.79306 36778 ft 490 kts 77°
2026-05-07 01:40 52.04515 -39.68539 36778 ft 490 kts 77°
2026-05-07 01:40 52.06056 -39.57750 36777 ft 490 kts 78°
2026-05-07 01:41 52.07575 -39.46951 36776 ft 490 kts 78°
2026-05-07 01:41 52.09083 -39.36144 36776 ft 490 kts 78°
2026-05-07 01:42 52.10583 -39.25329 36777 ft 490 kts 78°
2026-05-07 01:42 52.12073 -39.14512 36777 ft 490 kts 78°
2026-05-07 01:43 52.13554 -39.03683 36778 ft 490 kts 78°
2026-05-07 01:43 52.15025 -38.92854 36777 ft 490 kts 78°
2026-05-07 01:44 52.16485 -38.82016 36777 ft 490 kts 78°
2026-05-07 01:44 52.17935 -38.71174 36776 ft 490 kts 78°
2026-05-07 01:45 52.19375 -38.60323 36776 ft 490 kts 78°
2026-05-07 01:45 52.20805 -38.49475 36777 ft 490 kts 78°
2026-05-07 01:46 52.22226 -38.38606 36777 ft 490 kts 78°
2026-05-07 01:46 52.23635 -38.27739 36778 ft 490 kts 79°
2026-05-07 01:47 52.25035 -38.16864 36777 ft 490 kts 79°
2026-05-07 01:47 52.26417 -38.06050 36777 ft 490 kts 79°
2026-05-07 01:48 52.27796 -37.95164 36776 ft 490 kts 79°
2026-05-07 01:48 52.29167 -37.84265 36776 ft 490 kts 79°
2026-05-07 01:49 52.30527 -37.73362 36778 ft 490 kts 79°
2026-05-07 01:49 52.31877 -37.62452 36778 ft 490 kts 79°
2026-05-07 01:50 52.33217 -37.51535 36777 ft 490 kts 79°
2026-05-07 01:50 52.34547 -37.40614 36777 ft 490 kts 79°
2026-05-07 01:51 52.35866 -37.29690 36778 ft 490 kts 79°
2026-05-07 01:51 52.37177 -37.18749 36778 ft 490 kts 79°
2026-05-07 01:52 52.38476 -37.07809 36778 ft 490 kts 79°
2026-05-07 01:52 52.39765 -36.96862 36777 ft 490 kts 80°
2026-05-07 01:53 52.41044 -36.85914 36776 ft 490 kts 80°
2026-05-07 01:53 52.42314 -36.74949 36778 ft 490 kts 80°
2026-05-07 01:54 52.43572 -36.63986 36777 ft 490 kts 80°
2026-05-07 01:54 52.44821 -36.53014 36778 ft 490 kts 80°
2026-05-07 01:55 52.46051 -36.42115 36777 ft 490 kts 80°
2026-05-07 01:55 52.47279 -36.31133 36778 ft 490 kts 80°
2026-05-07 01:56 52.48497 -36.20147 36777 ft 490 kts 80°
2026-05-07 01:56 52.49705 -36.09152 36778 ft 490 kts 81°
2026-05-07 01:57 52.50903 -35.98152 36778 ft 490 kts 81°
2026-05-07 01:57 52.52090 -35.87147 36777 ft 490 kts 81°
2026-05-07 01:58 52.53268 -35.76132 36777 ft 490 kts 81°
2026-05-07 01:58 52.54435 -35.65117 36776 ft 490 kts 81°
2026-05-07 01:59 52.55591 -35.54094 36776 ft 490 kts 81°
2026-05-07 01:59 52.56738 -35.43066 36776 ft 490 kts 81°
2026-05-07 02:00 52.57874 -35.32029 36778 ft 489 kts 81°
2026-05-07 02:00 52.59000 -35.20995 36778 ft 489 kts 81°
2026-05-07 02:01 52.60115 -35.09952 36777 ft 489 kts 81°
2026-05-07 02:01 52.61221 -34.98902 36778 ft 489 kts 81°
2026-05-07 02:02 52.62315 -34.87848 36778 ft 489 kts 81°
2026-05-07 02:02 52.63400 -34.76785 36777 ft 489 kts 82°
2026-05-07 02:03 52.64474 -34.65725 36777 ft 489 kts 82°
2026-05-07 02:03 52.65538 -34.54653 36778 ft 489 kts 82°
2026-05-07 02:04 52.66592 -34.43574 36778 ft 489 kts 82°
2026-05-07 02:04 52.67636 -34.32494 36777 ft 489 kts 82°
2026-05-07 02:05 52.68668 -34.21413 36777 ft 489 kts 82°
2026-05-07 02:05 52.69690 -34.10325 36776 ft 489 kts 82°
2026-05-07 02:06 52.70703 -33.99226 36776 ft 489 kts 82°
2026-05-07 02:06 52.71705 -33.88125 36778 ft 489 kts 82°
2026-05-07 02:07 52.72696 -33.77024 36779 ft 489 kts 82°
2026-05-07 02:07 52.74163 -33.60358 36776 ft 489 kts 82°
2026-05-07 02:08 52.75129 -33.49243 36777 ft 489 kts 83°
2026-05-07 02:08 52.76083 -33.38124 36778 ft 489 kts 83°
2026-05-07 02:09 52.77028 -33.26993 36777 ft 489 kts 83°
2026-05-07 02:09 52.77962 -33.15864 36778 ft 489 kts 83°
2026-05-07 02:10 52.78730 -33.06614 36777 ft 489 kts 83°
2026-05-07 02:10 52.79646 -32.95471 36778 ft 489 kts 83°
2026-05-07 02:11 52.80550 -32.84334 36778 ft 489 kts 83°
2026-05-07 02:11 52.81444 -32.73183 36778 ft 489 kts 83°
2026-05-07 02:12 52.82327 -32.62036 36777 ft 489 kts 83°
2026-05-07 02:12 52.83201 -32.50878 36777 ft 489 kts 83°
2026-05-07 02:13 52.84063 -32.39726 36777 ft 489 kts 83°
2026-05-07 02:13 52.84915 -32.28556 36777 ft 489 kts 83°
2026-05-07 02:14 52.85756 -32.17394 36777 ft 489 kts 84°
2026-05-07 02:14 52.86582 -32.06294 36777 ft 489 kts 84°
2026-05-07 02:15 52.87403 -31.95119 36776 ft 489 kts 84°
2026-05-07 02:15 52.88212 -31.83947 36777 ft 489 kts 84°
2026-05-07 02:16 52.89012 -31.72761 36778 ft 489 kts 84°
2026-05-07 02:16 52.89802 -31.61570 36779 ft 489 kts 84°
2026-05-07 02:17 52.90580 -31.50378 36777 ft 489 kts 84°
2026-05-07 02:17 52.91348 -31.39189 36776 ft 489 kts 84°
2026-05-07 02:18 52.92106 -31.27987 36778 ft 489 kts 84°
2026-05-07 02:18 52.92852 -31.16788 36779 ft 489 kts 84°
2026-05-07 02:19 52.93589 -31.05582 36777 ft 489 kts 84°
2026-05-07 02:19 52.94315 -30.94372 36776 ft 489 kts 84°
2026-05-07 02:20 52.95030 -30.83161 36778 ft 489 kts 85°
2026-05-07 02:20 52.95734 -30.71951 36778 ft 489 kts 85°
2026-05-07 02:21 52.96429 -30.60725 36777 ft 489 kts 85°
2026-05-07 02:21 52.97108 -30.49585 36778 ft 489 kts 85°
2026-05-07 02:22 52.97781 -30.38356 36776 ft 489 kts 85°
2026-05-07 02:22 52.98443 -30.27132 36777 ft 489 kts 85°
2026-05-07 02:23 52.99095 -30.15899 36777 ft 489 kts 85°
2026-05-07 02:23 52.99738 -30.04670 36778 ft 489 kts 85°
2026-05-07 02:24 53.00326 -29.93429 36778 ft 489 kts 86°
2026-05-07 02:24 53.00776 -29.82167 36776 ft 489 kts 87°
2026-05-07 02:25 53.01198 -29.70903 36778 ft 489 kts 87°
2026-05-07 02:25 53.01625 -29.59645 36777 ft 489 kts 87°
2026-05-07 02:26 53.02053 -29.48379 36778 ft 489 kts 87°
2026-05-07 02:26 53.02474 -29.37111 36778 ft 489 kts 87°
2026-05-07 02:27 53.02884 -29.25844 36776 ft 489 kts 87°
2026-05-07 02:27 53.03282 -29.14575 36778 ft 489 kts 87°
2026-05-07 02:28 53.03669 -29.03308 36777 ft 489 kts 88°
2026-05-07 02:28 53.04045 -28.92035 36776 ft 489 kts 88°
2026-05-07 02:29 53.04411 -28.80759 36778 ft 489 kts 88°
2026-05-07 02:29 53.04766 -28.69485 36776 ft 489 kts 88°
2026-05-07 02:30 53.05110 -28.58211 36777 ft 489 kts 88°
2026-05-07 02:30 53.05444 -28.46935 36778 ft 489 kts 88°
2026-05-07 02:31 53.05767 -28.35657 36778 ft 489 kts 88°
2026-05-07 02:31 53.06080 -28.24376 36777 ft 489 kts 88°
2026-05-07 02:32 53.06380 -28.13164 36777 ft 489 kts 88°
2026-05-07 02:32 53.06671 -28.01880 36778 ft 488 kts 88°
2026-05-07 02:33 53.06951 -27.90600 36778 ft 488 kts 88°
2026-05-07 02:33 53.07221 -27.79315 36779 ft 488 kts 88°
2026-05-07 02:34 53.07480 -27.68024 36778 ft 488 kts 89°
2026-05-07 02:34 53.07728 -27.56735 36778 ft 488 kts 89°
2026-05-07 02:35 53.07966 -27.45452 36778 ft 488 kts 89°
2026-05-07 02:35 53.08193 -27.34155 36778 ft 488 kts 89°
2026-05-07 02:36 53.08410 -27.22866 36776 ft 488 kts 89°
2026-05-07 02:36 53.08615 -27.11580 36778 ft 488 kts 89°
2026-05-07 02:37 53.08810 -27.00284 36778 ft 488 kts 89°
2026-05-07 02:37 53.08994 -26.88993 36776 ft 488 kts 89°
2026-05-07 02:38 53.09168 -26.77698 36778 ft 488 kts 89°
2026-05-07 02:38 53.09331 -26.66402 36776 ft 488 kts 89°
2026-05-07 02:39 53.09483 -26.55109 36779 ft 488 kts 89°
2026-05-07 02:39 53.09625 -26.43820 36779 ft 488 kts 90°
2026-05-07 02:40 53.09755 -26.32524 36779 ft 488 kts 90°
2026-05-07 02:40 53.09875 -26.21227 36777 ft 488 kts 90°
2026-05-07 02:41 53.09985 -26.09931 36779 ft 488 kts 90°
2026-05-07 02:41 53.10084 -25.98636 36778 ft 488 kts 90°
2026-05-07 02:42 53.10172 -25.87341 36779 ft 488 kts 90°
2026-05-07 02:42 53.10249 -25.76051 36778 ft 488 kts 90°
2026-05-07 02:43 53.10315 -25.64759 36779 ft 488 kts 90°
2026-05-07 02:43 53.10371 -25.53462 36778 ft 488 kts 90°
2026-05-07 02:44 53.10417 -25.42168 36779 ft 488 kts 90°
2026-05-07 02:44 53.10451 -25.30875 36776 ft 488 kts 90°
2026-05-07 02:45 53.10475 -25.19581 36776 ft 488 kts 90°
2026-05-07 02:45 53.10488 -25.08289 36780 ft 488 kts 91°
2026-05-07 02:46 53.10491 -24.96997 36777 ft 488 kts 91°
2026-05-07 02:46 53.10483 -24.85782 36776 ft 488 kts 91°
2026-05-07 02:47 53.10464 -24.74499 36779 ft 488 kts 91°
2026-05-07 02:47 53.10434 -24.63206 36776 ft 488 kts 91°
2026-05-07 02:48 53.10394 -24.51919 36778 ft 488 kts 91°
2026-05-07 02:48 53.10343 -24.40626 36779 ft 488 kts 91°
2026-05-07 02:49 53.10282 -24.29344 36776 ft 488 kts 91°
2026-05-07 02:49 53.10210 -24.18051 36778 ft 488 kts 91°
2026-05-07 02:50 53.10127 -24.06769 36779 ft 488 kts 91°
2026-05-07 02:50 53.10033 -23.95483 36778 ft 488 kts 91°
2026-05-07 02:51 53.09929 -23.84204 36779 ft 488 kts 91°
2026-05-07 02:51 53.09814 -23.72919 36779 ft 488 kts 92°
2026-05-07 02:52 53.09689 -23.61635 36777 ft 488 kts 92°
2026-05-07 02:52 53.09553 -23.50364 36779 ft 488 kts 92°
2026-05-07 02:53 53.09406 -23.39080 36778 ft 488 kts 92°
2026-05-07 02:53 53.09248 -23.27807 36776 ft 488 kts 92°
2026-05-07 02:54 53.09080 -23.16527 36778 ft 488 kts 92°
2026-05-07 02:54 53.08901 -23.05256 36778 ft 487 kts 92°
2026-05-07 02:55 53.08712 -22.93985 36776 ft 487 kts 92°
2026-05-07 02:55 53.08512 -22.82712 36778 ft 487 kts 92°
2026-05-07 02:56 53.08301 -22.71445 36779 ft 487 kts 92°
2026-05-07 02:56 53.08118 -22.62081 36778 ft 487 kts 92°
2026-05-07 02:57 53.07888 -22.50817 36776 ft 487 kts 93°
2026-05-07 02:57 53.07647 -22.39548 36777 ft 487 kts 93°
2026-05-07 02:58 53.07396 -22.28287 36777 ft 487 kts 93°
2026-05-07 02:58 53.07134 -22.17031 36778 ft 487 kts 93°
2026-05-07 02:59 53.06861 -22.05770 36779 ft 487 kts 93°
2026-05-07 02:59 53.06578 -21.94512 36778 ft 487 kts 93°
2026-05-07 03:00 53.06284 -21.83263 36779 ft 487 kts 93°
2026-05-07 03:00 53.05980 -21.72007 36776 ft 487 kts 93°
2026-05-07 03:01 53.05665 -21.60762 36779 ft 487 kts 94°
2026-05-07 03:01 53.05339 -21.49512 36777 ft 487 kts 94°
2026-05-07 03:02 53.05003 -21.38266 36777 ft 487 kts 94°
2026-05-07 03:02 53.04656 -21.27025 36778 ft 487 kts 94°
2026-05-07 03:03 53.04302 -21.15860 36777 ft 487 kts 94°
2026-05-07 03:03 53.03934 -21.04618 36778 ft 487 kts 94°
2026-05-07 03:04 53.03555 -20.93385 36776 ft 487 kts 94°
2026-05-07 03:04 53.03166 -20.82152 36776 ft 487 kts 94°
2026-05-07 03:05 53.02767 -20.70923 36777 ft 487 kts 94°
2026-05-07 03:05 53.02357 -20.59695 36778 ft 487 kts 94°
2026-05-07 03:06 53.01937 -20.48475 36778 ft 487 kts 94°
2026-05-07 03:06 53.01506 -20.37254 36777 ft 487 kts 94°
2026-05-07 03:07 53.01064 -20.26030 36776 ft 487 kts 95°
2026-05-07 03:07 53.00613 -20.14812 36778 ft 487 kts 95°
2026-05-07 03:08 53.00135 -20.03607 36778 ft 486 kts 97°
2026-05-07 03:08 52.98817 -19.92631 36778 ft 484 kts 107°
2026-05-07 03:09 52.96875 -19.81927 36783 ft 485 kts 108°
2026-05-07 03:09 52.94929 -19.71215 36777 ft 485 kts 107°
2026-05-07 03:10 52.93004 -19.60493 36778 ft 485 kts 107°
2026-05-07 03:10 52.91083 -19.49772 36777 ft 485 kts 107°
2026-05-07 03:11 52.89154 -19.39051 36778 ft 485 kts 107°
2026-05-07 03:11 52.87216 -19.28355 36778 ft 485 kts 108°
2026-05-07 03:12 52.85267 -19.17663 36778 ft 485 kts 108°
2026-05-07 03:12 52.83308 -19.06983 36777 ft 485 kts 108°
2026-05-07 03:13 52.81340 -18.96318 36779 ft 485 kts 108°
2026-05-07 03:13 52.79364 -18.85664 36778 ft 485 kts 108°
2026-05-07 03:14 52.77378 -18.75024 36777 ft 485 kts 108°
2026-05-07 03:15 52.74381 -18.59076 36777 ft 485 kts 108°
2026-05-07 03:15 52.72371 -18.48457 36777 ft 485 kts 108°
2026-05-07 03:16 52.70352 -18.37844 36777 ft 485 kts 108°
2026-05-07 03:16 52.68324 -18.27250 36777 ft 485 kts 108°
2026-05-07 03:17 52.66287 -18.16665 36778 ft 485 kts 108°
2026-05-07 03:17 52.64239 -18.06087 36776 ft 485 kts 109°
2026-05-07 03:18 52.62196 -17.95586 36778 ft 485 kts 109°
2026-05-07 03:18 52.60116 -17.84958 36776 ft 485 kts 109°
2026-05-07 03:19 52.58056 -17.74487 36777 ft 485 kts 109°
2026-05-07 03:19 52.55971 -17.63951 36776 ft 485 kts 109°
2026-05-07 03:20 52.53878 -17.53423 36778 ft 485 kts 109°
2026-05-07 03:20 52.51776 -17.42912 36777 ft 485 kts 109°
2026-05-07 03:21 52.49663 -17.32406 36777 ft 485 kts 109°
2026-05-07 03:21 52.47542 -17.21913 36778 ft 485 kts 109°
2026-05-07 03:22 52.45412 -17.11429 36778 ft 485 kts 109°
2026-05-07 03:22 52.43273 -17.00958 36777 ft 484 kts 109°
2026-05-07 03:23 52.41124 -16.90498 36777 ft 484 kts 109°
2026-05-07 03:23 52.38966 -16.80046 36777 ft 484 kts 109°
2026-05-07 03:24 52.36800 -16.69607 36777 ft 484 kts 110°
2026-05-07 03:24 52.34624 -16.59179 36779 ft 484 kts 110°
2026-05-07 03:25 52.32439 -16.48759 36778 ft 484 kts 110°
2026-05-07 03:25 52.30244 -16.38346 36777 ft 484 kts 110°
2026-05-07 03:26 52.28042 -16.27956 36777 ft 484 kts 110°
2026-05-07 03:26 52.25831 -16.17571 36778 ft 484 kts 110°
2026-05-07 03:27 52.23609 -16.07192 36777 ft 484 kts 110°
2026-05-07 03:27 52.21379 -15.96829 36778 ft 484 kts 110°
2026-05-07 03:28 52.19141 -15.86478 36777 ft 484 kts 110°
2026-05-07 03:28 52.16893 -15.76136 36777 ft 484 kts 110°
2026-05-07 03:29 52.14636 -15.65804 36777 ft 484 kts 110°
2026-05-07 03:29 52.12372 -15.55487 36778 ft 484 kts 110°
2026-05-07 03:30 52.10112 -15.45246 36777 ft 484 kts 110°
2026-05-07 03:30 52.07829 -15.34944 36778 ft 484 kts 111°
2026-05-07 03:31 52.05537 -15.24657 36778 ft 484 kts 111°
2026-05-07 03:31 52.03239 -15.14381 36777 ft 484 kts 111°
2026-05-07 03:32 52.01054 -15.04050 36773 ft 485 kts 105°
2026-05-07 03:32 51.99989 -14.93256 36782 ft 486 kts 94°
2026-05-07 03:33 51.99963 -14.82290 36781 ft 486 kts 90°
2026-05-07 03:33 52.00052 -14.71314 36776 ft 487 kts 90°
2026-05-07 03:34 52.00094 -14.60333 36777 ft 487 kts 90°
2026-05-07 03:34 52.00101 -14.49339 36777 ft 487 kts 91°
2026-05-07 03:35 52.00094 -14.38354 36775 ft 487 kts 91°
2026-05-07 03:35 52.00080 -14.27368 36776 ft 487 kts 91°
2026-05-07 03:36 52.00057 -14.16383 36778 ft 487 kts 91°
2026-05-07 03:36 51.99954 -14.05415 36773 ft 486 kts 95°
2026-05-07 03:37 51.98780 -13.94654 36776 ft 484 kts 106°
2026-05-07 03:37 51.96564 -13.84363 36780 ft 483 kts 111°
2026-05-07 03:38 51.94199 -13.74155 36778 ft 484 kts 111°
2026-05-07 03:38 51.91850 -13.63944 36778 ft 484 kts 111°
2026-05-07 03:39 51.89513 -13.53722 36778 ft 484 kts 111°
2026-05-07 03:39 51.87174 -13.43504 36778 ft 484 kts 111°
2026-05-07 03:40 51.84827 -13.33299 36777 ft 484 kts 111°
2026-05-07 03:40 51.82486 -13.23173 36777 ft 484 kts 111°
2026-05-07 03:41 51.80104 -13.12926 36778 ft 484 kts 111°
2026-05-07 03:41 51.77746 -13.02827 36777 ft 484 kts 111°
2026-05-07 03:42 51.75365 -12.92679 36778 ft 484 kts 111°
2026-05-07 03:42 51.72974 -12.82535 36777 ft 484 kts 111°
2026-05-07 03:43 51.70574 -12.72402 36776 ft 484 kts 112°
2026-05-07 03:43 51.68166 -12.62282 36778 ft 483 kts 112°
2026-05-07 03:44 51.65750 -12.52178 36778 ft 483 kts 112°
2026-05-07 03:44 51.63326 -12.42083 36777 ft 483 kts 112°
2026-05-07 03:45 51.61303 -12.33696 36778 ft 483 kts 112°
2026-05-07 03:45 51.58862 -12.23618 36778 ft 483 kts 112°
2026-05-07 03:46 51.56414 -12.13559 36777 ft 483 kts 112°
2026-05-07 03:46 51.53956 -12.03501 36778 ft 483 kts 112°
2026-05-07 03:47 51.51490 -11.93459 36777 ft 483 kts 112°
2026-05-07 03:47 51.49015 -11.83427 36778 ft 483 kts 112°
2026-05-07 03:48 51.46532 -11.73408 36778 ft 483 kts 112°
2026-05-07 03:48 51.44041 -11.63401 36777 ft 483 kts 112°
2026-05-07 03:49 51.41541 -11.53401 36778 ft 483 kts 112°
2026-05-07 03:49 51.39033 -11.43416 36777 ft 483 kts 113°
2026-05-07 03:50 51.36516 -11.33442 36777 ft 483 kts 113°
2026-05-07 03:50 51.33992 -11.23482 36777 ft 483 kts 113°
2026-05-07 03:51 51.31476 -11.13595 36778 ft 483 kts 113°
2026-05-07 03:51 51.28934 -11.03653 36778 ft 483 kts 113°
2026-05-07 03:52 51.26385 -10.93725 36777 ft 483 kts 113°
2026-05-07 03:52 51.23828 -10.83806 36778 ft 483 kts 113°
2026-05-07 03:53 51.21267 -10.73903 36778 ft 483 kts 112°
2026-05-07 03:53 51.19163 -10.63730 36785 ft 483 kts 107°
2026-05-07 03:54 51.17255 -10.53455 36780 ft 484 kts 107°
2026-05-07 03:54 51.15326 -10.43180 36777 ft 484 kts 108°
2026-05-07 03:55 51.13367 -10.32926 36778 ft 484 kts 108°
2026-05-07 03:55 51.11392 -10.22687 36776 ft 484 kts 108°
2026-05-07 03:56 51.09408 -10.12458 36778 ft 484 kts 108°
2026-05-07 03:56 51.07415 -10.02235 36778 ft 484 kts 108°
2026-05-07 03:57 51.05415 -9.92026 36777 ft 484 kts 108°
2026-05-07 03:57 51.03405 -9.81822 36778 ft 484 kts 108°
2026-05-07 03:58 51.01389 -9.71637 36777 ft 484 kts 108°
2026-05-07 03:58 50.99361 -9.61451 36778 ft 484 kts 108°
2026-05-07 03:59 50.97327 -9.51284 36779 ft 484 kts 108°
2026-05-07 03:59 50.95297 -9.41188 36778 ft 483 kts 109°
2026-05-07 04:00 50.93245 -9.31038 36778 ft 483 kts 109°
2026-05-07 04:00 50.91184 -9.20896 36778 ft 483 kts 109°
2026-05-07 04:01 50.89115 -9.10763 36778 ft 483 kts 109°
2026-05-07 04:01 50.87035 -9.00634 36779 ft 483 kts 109°
2026-05-07 04:02 50.84948 -8.90520 36778 ft 483 kts 109°
2026-05-07 04:02 50.82853 -8.80414 36776 ft 483 kts 109°
2026-05-07 04:03 50.80749 -8.70320 36778 ft 483 kts 109°
2026-05-07 04:03 50.78635 -8.60232 36776 ft 483 kts 109°
2026-05-07 04:04 50.76514 -8.50154 36778 ft 483 kts 109°
2026-05-07 04:04 50.74385 -8.40091 36777 ft 483 kts 109°
2026-05-07 04:05 50.72246 -8.30034 36777 ft 483 kts 109°
2026-05-07 04:05 50.70099 -8.19982 36778 ft 483 kts 109°
2026-05-07 04:06 50.67945 -8.09942 36778 ft 483 kts 109°
2026-05-07 04:06 50.65772 -7.99925 36779 ft 483 kts 111°
2026-05-07 04:07 50.63207 -7.90155 36779 ft 482 kts 114°
2026-05-07 04:07 50.60542 -7.80461 36778 ft 482 kts 114°
2026-05-07 04:08 50.57882 -7.70773 36778 ft 483 kts 114°
2026-05-07 04:08 50.55227 -7.61074 36778 ft 483 kts 114°
2026-05-07 04:09 50.52571 -7.51383 36778 ft 483 kts 114°
2026-05-07 04:09 50.49925 -7.41765 36776 ft 483 kts 114°
2026-05-07 04:10 50.47254 -7.32102 36777 ft 483 kts 114°
2026-05-07 04:10 50.44574 -7.22444 36777 ft 482 kts 114°
2026-05-07 04:11 50.41886 -7.12803 36777 ft 482 kts 114°
2026-05-07 04:11 50.39190 -7.03170 36777 ft 482 kts 115°
2026-05-07 04:12 50.36489 -6.93556 36778 ft 482 kts 115°
2026-05-07 04:12 50.33777 -6.83945 36778 ft 482 kts 115°
2026-05-07 04:13 50.31059 -6.74353 36776 ft 482 kts 115°
2026-05-07 04:13 50.28332 -6.64766 36777 ft 482 kts 115°
2026-05-07 04:14 50.25598 -6.55193 36777 ft 482 kts 115°
2026-05-07 04:14 50.22857 -6.45634 36776 ft 482 kts 115°
2026-05-07 04:15 50.20109 -6.36089 36777 ft 482 kts 115°
2026-05-07 04:15 50.17352 -6.26551 36778 ft 482 kts 115°
2026-05-07 04:16 50.14587 -6.17024 36778 ft 482 kts 115°
2026-05-07 04:16 50.11814 -6.07508 36777 ft 482 kts 115°
2026-05-07 04:17 50.09037 -5.98012 36778 ft 482 kts 115°
2026-05-07 04:17 50.06269 -5.88587 36777 ft 482 kts 115°
2026-05-07 04:18 50.03475 -5.79111 36777 ft 482 kts 115°
2026-05-07 04:18 50.00672 -5.69641 36778 ft 482 kts 116°
2026-05-07 04:19 49.97863 -5.60189 36778 ft 482 kts 116°
2026-05-07 04:19 49.95046 -5.50744 36777 ft 482 kts 116°
2026-05-07 04:20 49.92221 -5.41311 36776 ft 482 kts 116°
2026-05-07 04:20 49.89389 -5.31888 36776 ft 482 kts 116°
2026-05-07 04:21 49.85128 -5.17782 36777 ft 482 kts 116°
2026-05-07 04:21 49.82278 -5.08393 36777 ft 482 kts 116°
2026-05-07 04:22 49.79418 -4.99008 36778 ft 482 kts 116°
2026-05-07 04:22 49.76573 -4.89706 36778 ft 482 kts 116°
2026-05-07 04:23 49.73702 -4.80352 36778 ft 482 kts 116°
2026-05-07 04:23 49.70820 -4.71002 36778 ft 482 kts 116°
2026-05-07 04:24 49.67933 -4.61668 36778 ft 482 kts 116°
2026-05-07 04:24 49.65040 -4.52348 36778 ft 481 kts 116°
2026-05-07 04:25 49.62141 -4.43039 36778 ft 481 kts 116°
2026-05-07 04:25 49.59338 -4.33669 36778 ft 482 kts 112°
2026-05-07 04:26 49.57497 -4.23744 36781 ft 482 kts 103°
2026-05-07 04:26 49.56019 -4.13656 36780 ft 483 kts 103°
2026-05-07 04:27 49.54514 -4.03567 36778 ft 483 kts 104°
2026-05-07 04:27 49.52973 -3.93494 36778 ft 483 kts 104°
2026-05-07 04:28 49.51415 -3.83437 36778 ft 483 kts 104°
2026-05-07 04:28 49.49847 -3.73382 36777 ft 483 kts 104°
2026-05-07 04:29 49.48272 -3.63336 36776 ft 483 kts 104°
2026-05-07 04:29 49.46689 -3.53301 36777 ft 483 kts 104°
2026-05-07 04:30 49.45098 -3.43268 36777 ft 483 kts 104°
2026-05-07 04:30 49.43499 -3.33253 36778 ft 483 kts 104°
2026-05-07 04:31 49.41902 -3.23307 36777 ft 483 kts 105°
2026-05-07 04:31 49.40274 -3.13234 36777 ft 483 kts 105°
2026-05-07 04:32 49.38660 -3.03302 36777 ft 483 kts 105°
2026-05-07 04:32 49.37027 -2.93314 36778 ft 483 kts 105°
2026-05-07 04:33 49.35385 -2.83328 36777 ft 483 kts 105°
2026-05-07 04:33 49.33735 -2.73354 36778 ft 483 kts 105°
2026-05-07 04:34 49.32076 -2.63381 36777 ft 483 kts 105°
2026-05-07 04:34 49.30680 -2.55037 36778 ft 483 kts 105°
2026-05-07 04:35 49.29005 -2.45080 36777 ft 483 kts 105°
2026-05-07 04:35 49.27323 -2.35135 36777 ft 483 kts 105°
2026-05-07 04:36 49.25632 -2.25190 36777 ft 482 kts 105°
2026-05-07 04:36 49.23946 -2.15326 36777 ft 482 kts 105°
2026-05-07 04:37 49.22263 -2.05389 36778 ft 483 kts 103°
2026-05-07 04:37 49.21299 -1.95231 36787 ft 483 kts 97°
2026-05-07 04:38 49.20571 -1.85017 36779 ft 483 kts 97°
2026-05-07 04:38 49.19812 -1.74799 36778 ft 484 kts 97°
2026-05-07 04:39 49.19020 -1.64590 36779 ft 484 kts 98°
2026-05-07 04:39 49.18210 -1.54388 36777 ft 483 kts 98°
2026-05-07 04:40 49.17391 -1.44192 36777 ft 483 kts 98°
2026-05-07 04:40 49.16565 -1.33997 36776 ft 483 kts 98°
2026-05-07 04:41 49.15731 -1.23807 36776 ft 483 kts 98°
2026-05-07 04:41 49.14888 -1.13631 36779 ft 483 kts 98°
2026-05-07 04:42 49.14036 -1.03446 36777 ft 483 kts 98°
2026-05-07 04:42 49.13175 -0.93272 36778 ft 483 kts 98°
2026-05-07 04:43 49.12304 -0.83095 36777 ft 483 kts 98°
2026-05-07 04:43 49.11426 -0.72929 36778 ft 483 kts 98°
2026-05-07 04:44 49.10539 -0.62770 36777 ft 483 kts 98°
2026-05-07 04:44 49.09644 -0.52609 36777 ft 483 kts 98°
2026-05-07 04:45 49.08577 -0.42505 36776 ft 482 kts 103°
2026-05-07 04:45 49.07090 -0.32538 36777 ft 482 kts 104°
2026-05-07 04:46 49.05578 -0.22580 36776 ft 482 kts 104°
2026-05-07 04:46 49.04081 -0.12615 36778 ft 482 kts 104°
2026-05-07 04:47 49.02586 -0.02647 36777 ft 482 kts 104°
2026-05-07 04:47 49.01085 0.07311 36776 ft 482 kts 104°
2026-05-07 04:48 48.99575 0.17261 36777 ft 482 kts 104°
2026-05-07 04:48 48.98055 0.27206 36777 ft 482 kts 104°
2026-05-07 04:49 48.96528 0.37141 36778 ft 482 kts 104°
2026-05-07 04:49 48.94993 0.47071 36776 ft 482 kts 104°
2026-05-07 04:50 48.93443 0.56990 36777 ft 482 kts 104°
2026-05-07 04:50 48.91815 0.66872 36778 ft 482 kts 105°
2026-05-07 04:51 48.90158 0.76741 36779 ft 482 kts 105°
2026-05-07 04:51 48.88512 0.86543 36778 ft 482 kts 105°
2026-05-07 04:52 48.86843 0.96473 36778 ft 482 kts 105°
2026-05-07 04:52 48.85190 1.06260 36777 ft 482 kts 105°
2026-05-07 04:53 48.83517 1.16108 36779 ft 482 kts 105°
2026-05-07 04:53 48.81836 1.25948 36777 ft 482 kts 105°
2026-05-07 04:54 48.80145 1.35784 36778 ft 482 kts 105°
2026-05-07 04:54 48.78449 1.45604 36777 ft 482 kts 105°
2026-05-07 04:55 48.76741 1.55428 36777 ft 482 kts 105°
2026-05-07 04:55 48.75027 1.65236 36778 ft 482 kts 105°
2026-05-07 04:56 48.73305 1.75041 36778 ft 482 kts 106°
2026-05-07 04:56 48.71573 1.84842 36775 ft 482 kts 106°
2026-05-07 04:57 48.69835 1.94627 36778 ft 481 kts 106°
2026-05-07 04:57 48.68088 2.04409 36778 ft 481 kts 106°
2026-05-07 04:58 48.66331 2.14189 36777 ft 481 kts 106°
2026-05-07 04:58 48.64568 2.23955 36779 ft 481 kts 106°
2026-05-07 04:59 48.62810 2.33641 36776 ft 481 kts 106°
2026-05-07 04:59 48.61030 2.43397 36778 ft 481 kts 106°
2026-05-07 05:00 48.59252 2.53089 36778 ft 481 kts 106°
2026-05-07 05:00 48.57459 2.62823 36778 ft 481 kts 106°
2026-05-07 05:01 48.55701 2.72570 36780 ft 481 kts 103°
2026-05-07 05:01 48.54864 2.82581 36777 ft 482 kts 92°
2026-05-07 05:02 48.54642 2.92704 36775 ft 483 kts 93°
2026-05-07 05:02 48.54319 3.02820 36780 ft 483 kts 94°
2026-05-07 05:03 48.53962 3.12936 36776 ft 483 kts 94°
2026-05-07 05:03 48.53599 3.23055 36781 ft 483 kts 94°
2026-05-07 05:04 48.53233 3.33178 36778 ft 483 kts 94°
2026-05-07 05:04 48.52858 3.43299 36775 ft 483 kts 94°
2026-05-07 05:05 48.52475 3.53407 36778 ft 483 kts 94°
2026-05-07 05:05 48.52082 3.63518 36777 ft 483 kts 94°
2026-05-07 05:06 48.51681 3.73617 36776 ft 482 kts 94°
2026-05-07 05:06 48.51272 3.83715 36776 ft 482 kts 94°
2026-05-07 05:07 48.50855 3.93814 36778 ft 482 kts 94°
2026-05-07 05:07 48.50196 4.03865 36776 ft 481 kts 101°
2026-05-07 05:08 48.48514 4.13606 36785 ft 480 kts 107°
2026-05-07 05:08 48.46683 4.23297 36778 ft 481 kts 107°
2026-05-07 05:09 48.44877 4.32997 36778 ft 481 kts 106°
2026-05-07 05:09 48.43085 4.42708 36778 ft 481 kts 106°
2026-05-07 05:10 48.41291 4.52414 36776 ft 481 kts 106°
2026-05-07 05:10 48.39488 4.62107 36777 ft 481 kts 107°
2026-05-07 05:11 48.37687 4.71730 36777 ft 481 kts 107°
2026-05-07 05:11 48.35867 4.81405 36778 ft 481 kts 107°
2026-05-07 05:12 48.34039 4.91072 36777 ft 481 kts 107°
2026-05-07 05:12 48.32204 5.00730 36778 ft 481 kts 107°
2026-05-07 05:13 48.30363 5.10379 36778 ft 481 kts 107°
2026-05-07 05:13 48.28649 5.20080 36774 ft 481 kts 104°
2026-05-07 05:14 48.27204 5.29880 36781 ft 481 kts 103°
2026-05-07 05:14 48.25776 5.39688 36778 ft 481 kts 103°
2026-05-07 05:15 48.24322 5.49488 36778 ft 481 kts 103°
2026-05-07 05:15 48.22846 5.59274 36777 ft 481 kts 104°
2026-05-07 05:16 48.21359 5.69053 36778 ft 481 kts 104°
2026-05-07 05:16 48.19864 5.78826 36776 ft 481 kts 104°
2026-05-07 05:17 48.18363 5.88590 36777 ft 481 kts 104°
2026-05-07 05:17 48.16854 5.98347 36779 ft 481 kts 104°
2026-05-07 05:18 48.15335 6.08103 36776 ft 481 kts 104°
2026-05-07 05:18 48.13820 6.17783 36778 ft 481 kts 104°
2026-05-07 05:19 48.12285 6.27524 36777 ft 481 kts 104°
2026-05-07 05:19 48.10743 6.37258 36778 ft 481 kts 104°
2026-05-07 05:20 48.09193 6.46986 36774 ft 481 kts 104°
2026-05-07 05:20 48.07633 6.56711 36777 ft 481 kts 104°
2026-05-07 05:21 48.05281 6.71272 36782 ft 480 kts 104°
2026-05-07 05:22 48.03703 6.80975 36779 ft 481 kts 104°
2026-05-07 05:22 48.02384 6.89042 36775 ft 481 kts 104°
2026-05-07 05:23 48.00791 6.98734 36781 ft 481 kts 104°
2026-05-07 05:23 47.99189 7.08422 36774 ft 480 kts 105°
2026-05-07 05:24 47.97579 7.18101 36775 ft 480 kts 105°
2026-05-07 05:24 47.95963 7.27768 36781 ft 480 kts 105°
2026-05-07 05:25 47.94338 7.37432 36778 ft 480 kts 105°
2026-05-07 05:25 47.92706 7.47090 36777 ft 480 kts 105°
2026-05-07 05:26 47.91064 7.56738 36777 ft 480 kts 105°
2026-05-07 05:26 47.88916 7.66135 36780 ft 479 kts 111°
2026-05-07 05:27 47.86529 7.75393 36779 ft 479 kts 112°
2026-05-07 05:27 47.84151 7.84667 36776 ft 480 kts 111°
2026-05-07 05:28 47.81788 7.93954 36779 ft 480 kts 111°
2026-05-07 05:28 47.79425 8.03232 36777 ft 480 kts 111°
2026-05-07 05:29 47.77054 8.12502 36774 ft 480 kts 111°
2026-05-07 05:29 47.74674 8.21764 36779 ft 480 kts 112°
2026-05-07 05:30 47.72304 8.30948 36777 ft 479 kts 112°
2026-05-07 05:30 47.69912 8.40187 36776 ft 479 kts 112°
2026-05-07 05:31 47.67590 8.49456 36776 ft 479 kts 110°
2026-05-07 05:31 47.65496 8.58840 36780 ft 479 kts 109°
2026-05-07 05:32 47.63415 8.68228 36778 ft 479 kts 109°
2026-05-07 05:32 47.61291 8.77596 36776 ft 479 kts 109°
2026-05-07 05:33 47.59144 8.86944 36779 ft 479 kts 110°
2026-05-07 05:33 47.56987 8.96281 36777 ft 479 kts 110°
2026-05-07 05:34 47.54823 9.05614 36778 ft 479 kts 110°
2026-05-07 05:34 47.52653 9.14939 36780 ft 479 kts 110°
2026-05-07 05:35 47.50476 9.24256 36779 ft 479 kts 110°
2026-05-07 05:35 47.48291 9.33567 36779 ft 479 kts 110°
2026-05-07 05:36 47.46099 9.42869 36774 ft 479 kts 110°
2026-05-07 05:36 47.43899 9.52167 36777 ft 479 kts 110°
2026-05-07 05:37 47.41693 9.61453 36778 ft 479 kts 110°
2026-05-07 05:37 47.39917 9.70926 36788 ft 479 kts 102°
2026-05-07 05:38 47.38622 9.80587 36780 ft 480 kts 102°
2026-05-07 05:38 47.37324 9.90244 36777 ft 480 kts 102°
2026-05-07 05:39 47.35990 9.99897 36771 ft 480 kts 102°
2026-05-07 05:39 47.34635 10.09538 36781 ft 480 kts 103°
2026-05-07 05:40 47.33269 10.19174 36777 ft 480 kts 103°
2026-05-07 05:40 47.31903 10.28752 36777 ft 480 kts 103°
2026-05-07 05:41 47.30523 10.38376 36783 ft 480 kts 103°
2026-05-07 05:41 47.29134 10.48005 36774 ft 480 kts 103°
2026-05-07 05:42 47.27738 10.57618 36778 ft 480 kts 103°
2026-05-07 05:42 47.26335 10.67230 36776 ft 480 kts 103°
2026-05-07 05:43 47.24923 10.76829 36775 ft 480 kts 103°
2026-05-07 05:43 47.23504 10.86424 36780 ft 480 kts 103°
2026-05-07 05:44 47.22078 10.96006 36776 ft 480 kts 103°
2026-05-07 05:44 47.20644 11.05581 36774 ft 479 kts 103°
2026-05-07 05:45 47.19202 11.15150 36771 ft 479 kts 103°
2026-05-07 05:45 47.17753 11.24710 36780 ft 479 kts 103°
2026-05-07 05:46 47.16294 11.34278 36780 ft 480 kts 103°
2026-05-07 05:46 47.14827 11.43843 36774 ft 480 kts 103°
2026-05-07 05:47 47.13352 11.53403 36782 ft 480 kts 103°
2026-05-07 05:47 47.11868 11.62961 36775 ft 480 kts 104°
2026-05-07 05:48 47.10378 11.72513 36775 ft 480 kts 104°
2026-05-07 05:48 47.08880 11.82052 36775 ft 479 kts 104°
2026-05-07 05:49 47.06769 11.91293 36775 ft 477 kts 116°
2026-05-07 05:49 47.03844 11.99948 36778 ft 477 kts 117°
2026-05-07 05:50 47.00871 12.08653 36771 ft 477 kts 117°
2026-05-07 05:50 46.97922 12.17361 36782 ft 478 kts 117°
2026-05-07 05:51 46.94980 12.26083 36777 ft 478 kts 117°
2026-05-07 05:51 46.92033 12.34802 36778 ft 478 kts 117°
2026-05-07 05:52 46.89104 12.43430 36774 ft 478 kts 117°
2026-05-07 05:52 46.86146 12.52117 36776 ft 477 kts 117°
2026-05-07 05:53 46.83181 12.60794 36777 ft 477 kts 117°
2026-05-07 05:53 46.80211 12.69453 36776 ft 477 kts 117°
2026-05-07 05:54 46.77233 12.78110 36774 ft 477 kts 117°
2026-05-07 05:54 46.74250 12.86753 36779 ft 477 kts 117°
2026-05-07 05:55 46.71262 12.95381 36777 ft 477 kts 117°
2026-05-07 05:55 46.68267 13.04005 36774 ft 477 kts 118°
2026-05-07 05:56 46.65250 13.12659 36851 ft 484 kts 118°
2026-05-07 05:56 46.63720 13.17039 37054 ft 486 kts 118°
2026-05-07 05:56 46.62186 13.21424 37361 ft 486 kts 118°
2026-05-07 05:56 46.60654 13.25796 37689 ft 485 kts 118°
2026-05-07 05:57 46.59123 13.30161 37990 ft 484 kts 118°
2026-05-07 05:57 46.57589 13.34523 38256 ft 485 kts 118°
2026-05-07 05:57 46.55961 13.38805 38520 ft 484 kts 123°
2026-05-07 05:57 46.54060 13.42839 38785 ft 484 kts 127°
2026-05-07 05:58 46.52075 13.46776 39034 ft 483 kts 127°
2026-05-07 05:58 46.50074 13.50703 39298 ft 483 kts 127°
2026-05-07 05:58 46.48074 13.54629 39539 ft 483 kts 127°
2026-05-07 05:58 46.46081 13.58555 39791 ft 484 kts 127°
2026-05-07 05:59 46.44093 13.62489 40023 ft 483 kts 127°
2026-05-07 05:59 46.42111 13.66419 40265 ft 484 kts 127°
2026-05-07 05:59 46.40127 13.70358 40487 ft 484 kts 127°
2026-05-07 05:59 46.38144 13.74293 40673 ft 484 kts 127°
2026-05-07 06:00 46.36152 13.78244 40717 ft 487 kts 127°
2026-05-07 06:00 46.32152 13.86155 40772 ft 486 kts 127°
2026-05-07 06:01 46.28176 13.93997 40771 ft 482 kts 127°
2026-05-07 06:01 46.24210 14.01791 40776 ft 480 kts 127°
2026-05-07 06:02 46.20248 14.09557 40779 ft 480 kts 127°
2026-05-07 06:02 46.16277 14.17320 40784 ft 481 kts 127°
2026-05-07 06:03 46.12319 14.25036 40779 ft 482 kts 127°
2026-05-07 06:03 46.08320 14.32811 40780 ft 484 kts 127°
2026-05-07 06:04 46.04303 14.40599 40778 ft 485 kts 127°
2026-05-07 06:04 46.00280 14.48377 40775 ft 485 kts 127°
2026-05-07 06:05 45.96249 14.56150 40777 ft 485 kts 128°
2026-05-07 06:05 45.92214 14.63908 40777 ft 484 kts 128°
2026-05-07 06:06 45.88180 14.71643 40773 ft 484 kts 128°
2026-05-07 06:06 45.84143 14.79364 40779 ft 483 kts 128°
2026-05-07 06:07 45.80105 14.87064 40775 ft 483 kts 128°
2026-05-07 06:07 45.76058 14.94761 40779 ft 483 kts 128°
2026-05-07 06:08 45.72008 15.02443 40776 ft 483 kts 128°
2026-05-07 06:08 45.67981 15.10060 40778 ft 483 kts 128°
2026-05-07 06:09 45.63922 15.17720 40778 ft 483 kts 128°
2026-05-07 06:09 45.59857 15.25373 40775 ft 483 kts 128°
2026-05-07 06:10 45.55752 15.32970 40777 ft 483 kts 130°
2026-05-07 06:10 45.52116 15.39096 40776 ft 483 kts 131°
2026-05-07 06:11 45.47718 15.46328 40778 ft 483 kts 131°
2026-05-07 06:11 45.43347 15.53597 40781 ft 483 kts 131°
2026-05-07 06:12 45.39023 15.60834 40776 ft 483 kts 131°
2026-05-07 06:12 45.34670 15.68111 40777 ft 483 kts 131°
2026-05-07 06:13 45.30306 15.75380 40777 ft 483 kts 131°
2026-05-07 06:13 45.25942 15.82630 40777 ft 483 kts 131°
2026-05-07 06:14 45.21572 15.89876 40779 ft 483 kts 131°
2026-05-07 06:14 45.17354 15.97292 40776 ft 483 kts 129°
2026-05-07 06:15 45.13220 16.04803 40778 ft 483 kts 129°
2026-05-07 06:15 45.09072 16.12291 40776 ft 483 kts 129°
2026-05-07 06:16 45.04914 16.19716 40777 ft 483 kts 129°
2026-05-07 06:16 45.00727 16.27150 40775 ft 483 kts 129°
2026-05-07 06:17 44.96531 16.34576 40776 ft 483 kts 129°
2026-05-07 06:17 44.92335 16.41985 40778 ft 483 kts 129°
2026-05-07 06:18 44.88135 16.49385 40777 ft 483 kts 129°
2026-05-07 06:18 44.83929 16.56777 40779 ft 483 kts 129°
2026-05-07 06:19 44.79719 16.64156 40778 ft 483 kts 130°
2026-05-07 06:19 44.75506 16.71521 40778 ft 483 kts 130°
2026-05-07 06:20 44.71286 16.78880 40777 ft 483 kts 130°
2026-05-07 06:20 44.67058 16.86234 40773 ft 484 kts 130°
2026-05-07 06:21 44.62827 16.93574 40777 ft 483 kts 130°
2026-05-07 06:21 44.58596 17.00896 40778 ft 483 kts 130°
2026-05-07 06:22 44.54358 17.08209 40780 ft 483 kts 130°
2026-05-07 06:22 44.47992 17.19163 40780 ft 483 kts 130°
2026-05-07 06:23 44.43741 17.26452 40772 ft 483 kts 130°
2026-05-07 06:23 44.39488 17.33727 40784 ft 483 kts 130°
2026-05-07 06:24 44.35231 17.40992 40778 ft 483 kts 130°
2026-05-07 06:24 44.30962 17.48256 40775 ft 483 kts 130°
2026-05-07 06:25 44.26694 17.55502 40783 ft 483 kts 130°
2026-05-07 06:25 44.22417 17.62745 40772 ft 483 kts 130°
2026-05-07 06:26 44.18141 17.69967 40777 ft 483 kts 130°
2026-05-07 06:26 44.13862 17.77177 40779 ft 483 kts 130°
2026-05-07 06:27 44.09609 17.84325 40773 ft 483 kts 130°
2026-05-07 06:27 44.05324 17.91509 40781 ft 483 kts 130°
2026-05-07 06:28 44.01032 17.98686 40777 ft 483 kts 130°
2026-05-07 06:28 43.96735 18.05854 40779 ft 483 kts 130°
2026-05-07 06:29 43.92428 18.13021 40781 ft 483 kts 130°
2026-05-07 06:29 43.88117 18.20176 40777 ft 484 kts 131°
2026-05-07 06:30 43.83796 18.27332 40778 ft 484 kts 131°
2026-05-07 06:30 43.79477 18.34465 40777 ft 483 kts 131°
2026-05-07 06:31 43.75153 18.41589 40778 ft 483 kts 131°
2026-05-07 06:31 43.70827 18.48699 40778 ft 483 kts 131°
2026-05-07 06:32 43.66500 18.55792 40772 ft 483 kts 131°
2026-05-07 06:32 43.62167 18.62879 40777 ft 483 kts 131°
2026-05-07 06:33 43.57834 18.69948 40780 ft 482 kts 131°
2026-05-07 06:33 43.53523 18.76964 40778 ft 483 kts 131°
2026-05-07 06:34 43.49177 18.84019 40779 ft 483 kts 131°
2026-05-07 06:34 43.44825 18.91068 40774 ft 483 kts 131°
2026-05-07 06:35 43.40473 18.98099 40780 ft 483 kts 131°
2026-05-07 06:35 43.36112 19.05128 40779 ft 483 kts 131°
2026-05-07 06:36 43.31749 19.12143 40777 ft 483 kts 131°
2026-05-07 06:36 43.27378 19.19154 40779 ft 483 kts 131°
2026-05-07 06:37 43.23006 19.26150 40778 ft 483 kts 131°
2026-05-07 06:37 43.18625 19.33143 40779 ft 483 kts 131°
2026-05-07 06:38 43.14243 19.40122 40778 ft 483 kts 131°
2026-05-07 06:38 43.09855 19.47091 40776 ft 483 kts 131°
2026-05-07 06:39 43.05464 19.54052 40773 ft 483 kts 131°
2026-05-07 06:39 43.01070 19.60998 40779 ft 483 kts 131°
2026-05-07 06:40 42.96678 19.67926 40778 ft 483 kts 131°
2026-05-07 06:40 42.92276 19.74854 40777 ft 483 kts 132°
2026-05-07 06:41 42.87871 19.81769 40777 ft 483 kts 132°
2026-05-07 06:41 42.83464 19.88672 40777 ft 483 kts 132°
2026-05-07 06:42 42.79083 19.95520 40780 ft 483 kts 132°
2026-05-07 06:42 42.74663 20.02412 40776 ft 483 kts 131°
2026-05-07 06:43 42.70350 20.09419 40777 ft 483 kts 130°
2026-05-07 06:43 42.66106 20.16500 40775 ft 483 kts 130°
2026-05-07 06:44 42.61851 20.23563 40779 ft 483 kts 130°
2026-05-07 06:44 42.57575 20.30600 40780 ft 483 kts 130°
2026-05-07 06:45 42.53293 20.37617 40777 ft 483 kts 130°
2026-05-07 06:45 42.49004 20.44629 40777 ft 483 kts 130°
2026-05-07 06:46 42.44709 20.51635 40775 ft 483 kts 130°
2026-05-07 06:46 42.40415 20.58626 40777 ft 483 kts 130°
2026-05-07 06:47 42.36113 20.65612 40775 ft 483 kts 130°
2026-05-07 06:47 42.31809 20.72585 40778 ft 483 kts 130°
2026-05-07 06:48 42.27503 20.79547 40776 ft 483 kts 131°
2026-05-07 06:48 42.23188 20.86505 40780 ft 483 kts 131°
2026-05-07 06:49 42.18871 20.93452 40772 ft 483 kts 131°
2026-05-07 06:49 42.14548 21.00395 40772 ft 483 kts 131°
2026-05-07 06:50 42.10165 21.07161 40780 ft 482 kts 136°
2026-05-07 06:50 42.05291 21.13357 40780 ft 482 kts 138°
2026-05-07 06:51 42.00376 21.19489 40781 ft 482 kts 138°
2026-05-07 06:51 41.95472 21.25644 40775 ft 482 kts 137°
2026-05-07 06:52 41.90583 21.31807 40779 ft 482 kts 137°
2026-05-07 06:52 41.85691 21.37969 40777 ft 482 kts 137°
2026-05-07 06:53 41.80798 21.44118 40779 ft 482 kts 137°
2026-05-07 06:53 41.75898 21.50258 40777 ft 482 kts 138°
2026-05-07 06:54 41.70995 21.56391 40775 ft 482 kts 138°
2026-05-07 06:54 41.66088 21.62513 40779 ft 482 kts 138°
2026-05-07 06:55 41.61181 21.68622 40777 ft 482 kts 138°
2026-05-07 06:55 41.56269 21.74724 40778 ft 482 kts 138°
2026-05-07 06:56 41.51356 21.80814 40776 ft 482 kts 138°
2026-05-07 06:56 41.46440 21.86896 40778 ft 482 kts 138°
2026-05-07 06:57 41.41521 21.92966 40777 ft 482 kts 138°
2026-05-07 06:57 41.37433 21.98003 40778 ft 482 kts 138°
2026-05-07 06:58 41.32503 22.04065 40780 ft 482 kts 138°
2026-05-07 06:58 41.27570 22.10116 40775 ft 482 kts 138°
2026-05-07 06:59 41.22641 22.16153 40779 ft 482 kts 138°
2026-05-07 06:59 41.17706 22.22183 40778 ft 482 kts 138°
2026-05-07 07:00 41.12624 22.27971 40778 ft 481 kts 142°
2026-05-07 07:00 41.07406 22.33542 40776 ft 481 kts 142°
2026-05-07 07:01 41.02186 22.39103 40779 ft 481 kts 142°
2026-05-07 07:01 40.96977 22.44678 40779 ft 482 kts 142°
2026-05-07 07:02 40.91773 22.50252 40776 ft 482 kts 142°
2026-05-07 07:02 40.86562 22.55824 40778 ft 482 kts 142°
2026-05-07 07:03 40.81349 22.61383 40778 ft 482 kts 142°
2026-05-07 07:03 40.76134 22.66933 40778 ft 482 kts 142°
2026-05-07 07:04 40.70949 22.72440 40778 ft 482 kts 142°
2026-05-07 07:04 40.65730 22.77972 40777 ft 482 kts 142°
2026-05-07 07:05 40.60506 22.83497 40776 ft 482 kts 142°
2026-05-07 07:05 40.55283 22.89011 40778 ft 481 kts 142°
2026-05-07 07:06 40.50057 22.94517 40778 ft 481 kts 142°
2026-05-07 07:06 40.44900 23.00128 40782 ft 482 kts 137°
2026-05-07 07:07 40.40255 23.06480 40778 ft 482 kts 134°
2026-05-07 07:07 40.35667 23.12910 40780 ft 483 kts 134°
2026-05-07 07:08 40.31061 23.19307 40777 ft 483 kts 134°
2026-05-07 07:08 40.26429 23.25686 40778 ft 483 kts 134°
2026-05-07 07:09 40.21793 23.32045 40776 ft 483 kts 134°
2026-05-07 07:09 40.17153 23.38396 40777 ft 483 kts 134°
2026-05-07 07:10 40.12514 23.44734 40779 ft 483 kts 134°
2026-05-07 07:10 40.07870 23.51069 40777 ft 482 kts 135°
2026-05-07 07:11 40.03225 23.57390 40777 ft 482 kts 135°
2026-05-07 07:11 39.98575 23.63704 40777 ft 482 kts 135°
2026-05-07 07:12 39.93924 23.70007 40777 ft 483 kts 135°
2026-05-07 07:12 39.89266 23.76306 40775 ft 483 kts 135°
2026-05-07 07:13 39.84606 23.82595 40776 ft 483 kts 135°
2026-05-07 07:13 39.79942 23.88877 40777 ft 482 kts 135°
2026-05-07 07:14 39.75275 23.95148 40777 ft 482 kts 135°
2026-05-07 07:14 39.70608 24.01407 40776 ft 482 kts 135°
2026-05-07 07:15 39.65967 24.07619 40779 ft 482 kts 135°
2026-05-07 07:15 39.61258 24.13908 40777 ft 482 kts 135°
2026-05-07 07:16 39.56611 24.20102 40777 ft 482 kts 135°
2026-05-07 07:16 39.51930 24.26329 40777 ft 482 kts 135°
2026-05-07 07:17 39.47242 24.32553 40777 ft 482 kts 135°
2026-05-07 07:17 39.42557 24.38760 40778 ft 483 kts 135°
2026-05-07 07:18 39.37863 24.44967 40778 ft 483 kts 135°
2026-05-07 07:18 39.33170 24.51163 40776 ft 483 kts 135°
2026-05-07 07:19 39.28508 24.57405 40777 ft 483 kts 135°
2026-05-07 07:19 39.23863 24.63651 40778 ft 483 kts 135°
2026-05-07 07:20 39.19203 24.69890 40779 ft 483 kts 135°
2026-05-07 07:20 39.14541 24.76113 40777 ft 483 kts 135°
2026-05-07 07:21 39.09875 24.82322 40778 ft 482 kts 135°
2026-05-07 07:21 39.05157 24.88466 40777 ft 482 kts 136°
2026-05-07 07:22 39.00420 24.94577 40778 ft 482 kts 136°
2026-05-07 07:22 38.95685 25.00690 40777 ft 482 kts 136°
2026-05-07 07:23 38.90952 25.06799 40777 ft 482 kts 136°
2026-05-07 07:23 38.86217 25.12902 40778 ft 482 kts 136°
2026-05-07 07:24 38.81510 25.18957 40778 ft 482 kts 136°
2026-05-07 07:24 38.76770 25.25043 40777 ft 482 kts 136°
2026-05-07 07:25 38.69649 25.34161 40778 ft 482 kts 136°
2026-05-07 07:26 38.64901 25.40225 40778 ft 482 kts 136°
2026-05-07 07:26 38.60149 25.46283 40777 ft 482 kts 136°
2026-05-07 07:27 38.55394 25.52334 40778 ft 482 kts 136°
2026-05-07 07:27 38.50634 25.58378 40779 ft 482 kts 136°
2026-05-07 07:28 38.45875 25.64410 40779 ft 482 kts 136°
2026-05-07 07:28 38.41110 25.70439 40776 ft 482 kts 136°
2026-05-07 07:29 38.36345 25.76457 40777 ft 482 kts 136°
2026-05-07 07:29 38.31593 25.82492 40777 ft 482 kts 136°
2026-05-07 07:30 38.26839 25.88524 40778 ft 482 kts 136°
2026-05-07 07:30 38.21925 25.94323 40777 ft 482 kts 140°
2026-05-07 07:31 38.16841 25.99879 40778 ft 482 kts 140°
2026-05-07 07:31 38.11764 26.05450 40774 ft 482 kts 140°
2026-05-07 07:32 38.06702 26.11033 40777 ft 482 kts 140°
2026-05-07 07:32 38.01640 26.16603 40778 ft 482 kts 140°
2026-05-07 07:33 37.96574 26.22167 40777 ft 482 kts 140°
2026-05-07 07:33 37.91506 26.27727 40779 ft 482 kts 140°
2026-05-07 07:34 37.86473 26.33237 40778 ft 482 kts 140°
2026-05-07 07:34 37.81406 26.38786 40777 ft 482 kts 140°
2026-05-07 07:35 37.76339 26.44335 40778 ft 482 kts 140°
2026-05-07 07:35 37.71270 26.49876 40778 ft 482 kts 140°
2026-05-07 07:36 37.66194 26.55406 40779 ft 482 kts 140°
2026-05-07 07:36 37.61112 26.60910 40777 ft 482 kts 140°
2026-05-07 07:37 37.56021 26.66415 40777 ft 482 kts 140°
2026-05-07 07:37 37.50934 26.71910 40777 ft 482 kts 140°
2026-05-07 07:38 37.45842 26.77403 40778 ft 482 kts 140°
2026-05-07 07:38 37.40750 26.82884 40778 ft 482 kts 140°
2026-05-07 07:39 37.35814 26.88585 40779 ft 482 kts 137°
2026-05-07 07:39 37.30973 26.94416 40777 ft 482 kts 137°
2026-05-07 07:40 37.26128 27.00242 40777 ft 482 kts 137°
2026-05-07 07:40 37.21268 27.06044 40777 ft 482 kts 137°
2026-05-07 07:41 37.16398 27.11833 40777 ft 482 kts 137°
2026-05-07 07:41 37.11524 27.17614 40777 ft 482 kts 137°
2026-05-07 07:42 37.06651 27.23385 40777 ft 482 kts 137°
2026-05-07 07:42 37.01772 27.29153 40777 ft 482 kts 137°
2026-05-07 07:43 36.96892 27.34912 40780 ft 482 kts 137°
2026-05-07 07:43 36.92008 27.40664 40777 ft 482 kts 137°
2026-05-07 07:44 36.87126 27.46405 40779 ft 482 kts 137°
2026-05-07 07:44 36.82237 27.52142 40777 ft 482 kts 137°
2026-05-07 07:45 36.78174 27.56901 40777 ft 482 kts 137°
2026-05-07 07:45 36.73285 27.62620 40778 ft 482 kts 137°
2026-05-07 07:46 36.67596 27.69261 40778 ft 482 kts 137°
2026-05-07 07:46 36.62698 27.74967 40779 ft 482 kts 137°
2026-05-07 07:47 36.58591 27.79744 40781 ft 482 kts 138°
2026-05-07 07:47 36.53688 27.85437 40776 ft 482 kts 138°
2026-05-07 07:48 36.48778 27.91129 40775 ft 482 kts 138°
2026-05-07 07:48 36.43874 27.96802 40778 ft 482 kts 138°
2026-05-07 07:49 36.38964 28.02475 40776 ft 482 kts 138°
2026-05-07 07:49 36.34166 28.08204 40783 ft 482 kts 133°
2026-05-07 07:50 36.30072 28.14794 40783 ft 483 kts 126°
2026-05-07 07:50 36.26204 28.21612 40778 ft 484 kts 126°
2026-05-07 07:51 36.22299 28.28399 40778 ft 484 kts 127°
2026-05-07 07:51 36.18367 28.35161 40777 ft 484 kts 127°
2026-05-07 07:52 36.14430 28.41916 40778 ft 484 kts 127°
2026-05-07 07:52 36.10488 28.48656 40777 ft 484 kts 127°
2026-05-07 07:53 36.06527 28.55387 40778 ft 484 kts 127°
2026-05-07 07:53 36.02570 28.62103 40778 ft 484 kts 127°
2026-05-07 07:54 35.98608 28.68822 40777 ft 484 kts 127°
2026-05-07 07:54 35.94643 28.75532 40778 ft 484 kts 127°
2026-05-07 07:55 35.90682 28.82236 40779 ft 484 kts 127°
2026-05-07 07:55 35.86723 28.88940 40778 ft 484 kts 127°
2026-05-07 07:56 35.82758 28.95641 40778 ft 484 kts 127°
2026-05-07 07:56 35.78792 29.02330 40778 ft 484 kts 127°
2026-05-07 07:57 35.74819 29.09016 40778 ft 484 kts 127°
2026-05-07 07:57 35.70844 29.15693 40778 ft 484 kts 127°
2026-05-07 07:58 35.66865 29.22365 40778 ft 484 kts 127°
2026-05-07 07:58 35.62884 29.29026 40778 ft 484 kts 127°
2026-05-07 07:59 35.58898 29.35684 40777 ft 484 kts 127°
2026-05-07 07:59 35.54909 29.42333 40777 ft 484 kts 127°
2026-05-07 08:00 35.50915 29.48979 40777 ft 484 kts 127°
2026-05-07 08:00 35.46917 29.55618 40779 ft 484 kts 127°
2026-05-07 08:01 35.42943 29.62205 40778 ft 484 kts 127°
2026-05-07 08:01 35.38938 29.68830 40778 ft 484 kts 127°
2026-05-07 08:02 35.34930 29.75448 40777 ft 484 kts 127°
2026-05-07 08:02 35.30921 29.82057 40777 ft 484 kts 127°
2026-05-07 08:03 35.26906 29.88663 40777 ft 484 kts 127°
2026-05-07 08:03 35.22889 29.95260 40777 ft 484 kts 127°
2026-05-07 08:04 35.18855 30.01844 40778 ft 483 kts 128°
2026-05-07 08:04 35.14675 30.08273 40777 ft 483 kts 130°
2026-05-07 08:05 35.10444 30.14654 40776 ft 483 kts 130°
2026-05-07 08:05 35.06230 30.21043 40777 ft 483 kts 129°
2026-05-07 08:06 35.02024 30.27445 40778 ft 483 kts 129°
2026-05-07 08:06 34.97819 30.33843 40778 ft 483 kts 129°
2026-05-07 08:07 34.93609 30.40235 40777 ft 483 kts 129°
2026-05-07 08:07 34.89400 30.46613 40777 ft 483 kts 130°
2026-05-07 08:08 34.85184 30.52987 40778 ft 483 kts 130°
2026-05-07 08:08 34.80965 30.59357 40776 ft 483 kts 130°
2026-05-07 08:09 34.76741 30.65722 40778 ft 483 kts 130°
2026-05-07 08:09 34.72517 30.72075 40777 ft 483 kts 130°
2026-05-07 08:10 34.68289 30.78425 40778 ft 483 kts 130°
2026-05-07 08:10 34.64056 30.84771 40778 ft 483 kts 130°
2026-05-07 08:11 34.59849 30.91134 40777 ft 483 kts 128°
2026-05-07 08:11 34.55817 30.97596 40777 ft 483 kts 128°
2026-05-07 08:12 34.51790 31.04122 40777 ft 483 kts 128°
2026-05-07 08:12 34.47738 31.10630 40778 ft 483 kts 128°
2026-05-07 08:13 34.43668 31.17121 40777 ft 483 kts 128°
2026-05-07 08:13 34.39595 31.23595 40777 ft 483 kts 128°
2026-05-07 08:14 34.35518 31.30067 40777 ft 483 kts 128°
2026-05-07 08:14 34.31435 31.36538 40778 ft 483 kts 128°
2026-05-07 08:15 34.27352 31.42998 40777 ft 483 kts 128°
2026-05-07 08:15 34.23266 31.49450 40777 ft 483 kts 128°
2026-05-07 08:16 34.19176 31.55899 40777 ft 483 kts 128°
2026-05-07 08:16 34.15082 31.62342 40776 ft 483 kts 128°
2026-05-07 08:17 34.10987 31.68774 40778 ft 483 kts 128°
2026-05-07 08:17 34.06886 31.75205 40778 ft 483 kts 128°
2026-05-07 08:18 34.02784 31.81626 40777 ft 483 kts 128°
2026-05-07 08:18 33.98677 31.88044 40776 ft 483 kts 128°
2026-05-07 08:19 33.94593 31.94414 40778 ft 483 kts 128°
2026-05-07 08:19 33.90483 32.00816 40778 ft 483 kts 128°
2026-05-07 08:20 33.86338 32.07257 40778 ft 483 kts 129°
2026-05-07 08:20 33.82170 32.13530 40778 ft 483 kts 130°
2026-05-07 08:21 33.77929 32.19799 40777 ft 483 kts 130°
2026-05-07 08:21 33.73692 32.26071 40776 ft 483 kts 130°
2026-05-07 08:22 33.69464 32.32342 40735 ft 483 kts 130°
2026-05-07 08:22 33.67343 32.35489 40256 ft 486 kts 130°
2026-05-07 08:22 33.65218 32.38637 39680 ft 484 kts 130°
2026-05-07 08:22 33.63114 32.41754 39251 ft 478 kts 130°
2026-05-07 08:23 33.61029 32.44839 38803 ft 473 kts 130°
2026-05-07 08:23 33.58965 32.47889 38361 ft 469 kts 130°
2026-05-07 08:23 33.56920 32.50909 37923 ft 464 kts 130°
2026-05-07 08:23 33.54893 32.53899 37489 ft 460 kts 130°
2026-05-07 08:24 33.52885 32.56859 37058 ft 456 kts 130°
2026-05-07 08:24 33.50896 32.59788 36625 ft 451 kts 130°
2026-05-07 08:24 33.48921 32.62695 36195 ft 447 kts 130°
2026-05-07 08:24 33.46967 32.65569 35760 ft 443 kts 130°
2026-05-07 08:25 33.45027 32.68418 35328 ft 440 kts 130°
2026-05-07 08:25 33.43101 32.71246 34883 ft 436 kts 130°
2026-05-07 08:25 33.41189 32.74052 34431 ft 433 kts 130°
2026-05-07 08:25 33.39291 32.76834 33993 ft 430 kts 130°
2026-05-07 08:26 33.35533 32.82336 33101 ft 424 kts 130°
2026-05-07 08:26 33.33673 32.85058 32662 ft 421 kts 130°
2026-05-07 08:26 33.31824 32.87760 32231 ft 418 kts 130°
2026-05-07 08:27 33.29989 32.90440 31796 ft 415 kts 130°
2026-05-07 08:27 33.28166 32.93101 31355 ft 412 kts 130°
2026-05-07 08:27 33.26353 32.95745 30921 ft 410 kts 130°
2026-05-07 08:27 33.24554 32.98368 30497 ft 407 kts 130°
2026-05-07 08:28 33.22766 33.00974 30076 ft 404 kts 130°
2026-05-07 08:28 33.20988 33.03561 29657 ft 401 kts 130°
2026-05-07 08:28 33.19231 33.06135 29224 ft 399 kts 129°
2026-05-07 08:28 33.17526 33.08729 28760 ft 396 kts 129°
2026-05-07 08:29 33.15848 33.11331 28318 ft 394 kts 128°
2026-05-07 08:29 33.14187 33.13916 27868 ft 392 kts 128°
2026-05-07 08:29 33.12533 33.16485 27421 ft 390 kts 129°
2026-05-07 08:29 33.10882 33.19042 26983 ft 387 kts 129°
2026-05-07 08:30 33.09240 33.21576 26547 ft 385 kts 129°
2026-05-07 08:30 33.07603 33.24097 26104 ft 383 kts 129°
2026-05-07 08:30 33.05975 33.26601 25665 ft 381 kts 129°
2026-05-07 08:30 33.04355 33.29089 25239 ft 379 kts 129°
2026-05-07 08:31 33.02742 33.31565 24810 ft 377 kts 129°
2026-05-07 08:31 33.01137 33.34027 24388 ft 375 kts 129°
2026-05-07 08:31 32.99541 33.36473 23952 ft 373 kts 129°
2026-05-07 08:31 32.97951 33.38909 23524 ft 371 kts 129°
2026-05-07 08:32 32.96904 33.40512 23248 ft 370 kts 129°
2026-05-07 08:32 32.95326 33.42926 22841 ft 368 kts 129°
2026-05-07 08:32 32.93756 33.45326 22426 ft 367 kts 129°
2026-05-07 08:32 32.92193 33.47716 22005 ft 365 kts 129°
2026-05-07 08:33 32.90637 33.50092 21586 ft 363 kts 129°
2026-05-07 08:33 32.89089 33.52456 21155 ft 362 kts 129°
2026-05-07 08:33 32.87545 33.54812 20750 ft 360 kts 129°
2026-05-07 08:33 32.86009 33.57155 20333 ft 358 kts 129°
2026-05-07 08:34 32.84479 33.59485 19916 ft 357 kts 129°
2026-05-07 08:34 32.82955 33.61804 19499 ft 355 kts 129°
2026-05-07 08:34 32.81335 33.64008 19069 ft 352 kts 135°
2026-05-07 08:34 32.79640 33.66099 18664 ft 350 kts 135°
2026-05-07 08:35 32.77945 33.68172 18252 ft 349 kts 135°
2026-05-07 08:35 32.76259 33.70235 17838 ft 347 kts 135°
2026-05-07 08:35 32.74582 33.72292 17435 ft 346 kts 135°
2026-05-07 08:35 32.72912 33.74345 17009 ft 344 kts 135°
2026-05-07 08:36 32.71252 33.76388 16585 ft 343 kts 135°
2026-05-07 08:36 32.69599 33.78424 16169 ft 342 kts 135°
2026-05-07 08:36 32.67953 33.80450 15766 ft 340 kts 135°
2026-05-07 08:36 32.66337 33.82440 15356 ft 339 kts 135°
2026-05-07 08:37 32.64705 33.84448 14941 ft 337 kts 135°
2026-05-07 08:37 32.63058 33.86474 14521 ft 336 kts 135°
2026-05-07 08:37 32.61461 33.88438 14110 ft 335 kts 135°
2026-05-07 08:37 32.59849 33.90419 13694 ft 333 kts 135°
2026-05-07 08:38 32.58243 33.92391 13276 ft 332 kts 135°
2026-05-07 08:38 32.56643 33.94354 12866 ft 330 kts 135°
2026-05-07 08:38 32.55064 33.96303 12596 ft 324 kts 135°
2026-05-07 08:38 32.53536 33.98211 12357 ft 315 kts 135°
2026-05-07 08:39 32.52047 34.00073 12128 ft 307 kts 135°
2026-05-07 08:39 32.50592 34.01891 11918 ft 302 kts 135°
2026-05-07 08:39 32.49155 34.03684 11688 ft 300 kts 135°
2026-05-07 08:39 32.47720 34.05473 11498 ft 299 kts 135°
2026-05-07 08:40 32.46287 34.07257 11277 ft 299 kts 135°
2026-05-07 08:40 32.44855 34.09037 11072 ft 298 kts 135°
2026-05-07 08:40 32.43451 34.10826 10835 ft 293 kts 130°
2026-05-07 08:40 32.42520 34.12957 10607 ft 294 kts 106°
2026-05-07 08:41 32.42104 34.15329 10400 ft 298 kts 102°
2026-05-07 08:41 32.41694 34.17751 10170 ft 302 kts 103°
2026-05-07 08:41 32.41272 34.20182 9919 ft 300 kts 103°
2026-05-07 08:41 32.40852 34.22570 9684 ft 293 kts 103°
2026-05-07 08:42 32.40438 34.24906 9446 ft 287 kts 103°
2026-05-07 08:42 32.40027 34.27195 9219 ft 282 kts 103°
2026-05-07 08:42 32.39621 34.29451 9013 ft 280 kts 103°
2026-05-07 08:42 32.39214 34.31705 8793 ft 280 kts 103°
2026-05-07 08:43 32.38809 34.33946 8677 ft 276 kts 103°
2026-05-07 08:43 32.38409 34.36160 8560 ft 274 kts 103°
2026-05-07 08:43 32.38008 34.38370 8456 ft 276 kts 103°
2026-05-07 08:43 32.37602 34.40608 8354 ft 280 kts 103°
2026-05-07 08:44 32.37193 34.42863 8240 ft 281 kts 103°
2026-05-07 08:44 32.36786 34.45110 8141 ft 276 kts 103°
2026-05-07 08:44 32.36391 34.47290 8014 ft 267 kts 104°
2026-05-07 08:44 32.36008 34.49397 7899 ft 257 kts 104°
2026-05-07 08:45 32.35638 34.51427 7779 ft 248 kts 104°
2026-05-07 08:45 32.35186 34.53340 7556 ft 236 kts 120°
2026-05-07 08:45 32.34108 34.54728 7302 ft 228 kts 152°
2026-05-07 08:45 32.32624 34.55291 7056 ft 225 kts 177°
2026-05-07 08:46 32.31083 34.55048 6813 ft 225 kts 202°
2026-05-07 08:46 32.29810 34.54006 6563 ft 225 kts 230°
2026-05-07 08:46 32.29071 34.52390 6321 ft 226 kts 252°
2026-05-07 08:46 32.28944 34.50556 6054 ft 226 kts 278°
2026-05-07 08:47 32.29284 34.48763 5820 ft 224 kts 281°
2026-05-07 08:47 32.29618 34.46960 5573 ft 225 kts 280°
2026-05-07 08:47 32.29949 34.45143 5331 ft 227 kts 280°
2026-05-07 08:47 32.30278 34.43322 5094 ft 226 kts 280°
2026-05-07 08:48 32.30779 34.41603 4926 ft 220 kts 303°
2026-05-07 08:48 32.31912 34.40378 4867 ft 227 kts 329°
2026-05-07 08:48 32.33429 34.39812 4828 ft 233 kts 356°
2026-05-07 08:48 32.34999 34.40121 4782 ft 234 kts 25°
2026-05-07 08:49 32.36254 34.41298 4775 ft 231 kts 56°
2026-05-07 08:49 32.36881 34.43020 4766 ft 228 kts 81°
2026-05-07 08:49 32.36876 34.44859 4764 ft 223 kts 102°
2026-05-07 08:49 32.36556 34.46674 4770 ft 229 kts 104°
2026-05-07 08:50 32.36204 34.48516 4767 ft 229 kts 104°
2026-05-07 08:50 32.35859 34.50350 4750 ft 228 kts 104°
2026-05-07 08:50 32.35521 34.52172 4750 ft 225 kts 105°
2026-05-07 08:50 32.34981 34.54014 4783 ft 253 kts 115°
2026-05-07 08:51 32.34250 34.55967 4776 ft 262 kts 116°
2026-05-07 08:51 32.33499 34.57941 4769 ft 264 kts 116°
2026-05-07 08:51 32.32754 34.59923 4765 ft 264 kts 115°
2026-05-07 08:51 32.32017 34.61908 4761 ft 263 kts 115°
2026-05-07 08:52 32.31287 34.63893 4751 ft 263 kts 115°
2026-05-07 08:52 32.30562 34.65878 4760 ft 263 kts 115°
2026-05-07 08:52 32.29840 34.67863 4761 ft 263 kts 115°
2026-05-07 08:52 32.29118 34.69846 4758 ft 263 kts 115°
2026-05-07 08:53 32.28396 34.71829 4764 ft 263 kts 115°
2026-05-07 08:53 32.27674 34.73813 4762 ft 263 kts 115°
2026-05-07 08:53 32.26950 34.75796 4761 ft 263 kts 115°
2026-05-07 08:53 32.26225 34.77781 4758 ft 263 kts 115°
2026-05-07 08:54 32.25501 34.79767 4763 ft 263 kts 114°
2026-05-07 08:54 32.24887 34.81805 4751 ft 264 kts 108°
2026-05-07 08:54 32.24367 34.83894 4663 ft 268 kts 108°
2026-05-07 08:54 32.23839 34.86002 4496 ft 267 kts 108°
2026-05-07 08:55 32.23310 34.88085 4293 ft 263 kts 109°
2026-05-07 08:55 32.22786 34.90127 4141 ft 257 kts 108°
2026-05-07 08:55 32.22271 34.92127 3968 ft 252 kts 109°
2026-05-07 08:55 32.21771 34.94053 3811 ft 246 kts 109°
2026-05-07 08:56 32.21267 34.95970 3652 ft 243 kts 109°
2026-05-07 08:56 32.20655 34.97762 3423 ft 227 kts 128°
2026-05-07 08:56 32.19471 34.98850 3343 ft 209 kts 161°
2026-05-07 08:56 32.18121 34.99212 3236 ft 192 kts 178°
2026-05-07 08:57 32.16807 34.99159 3086 ft 188 kts 186°
2026-05-07 08:57 32.15618 34.98793 2914 ft 165 kts 204°
2026-05-07 08:57 32.14626 34.98268 2787 ft 149 kts 206°
2026-05-07 08:57 32.13731 34.97732 2664 ft 141 kts 208°
2026-05-07 08:58 32.12861 34.97181 2602 ft 145 kts 208°
2026-05-07 08:58 32.11971 34.96611 2385 ft 143 kts 208°
2026-05-07 08:58 32.11117 34.96056 2191 ft 138 kts 209°
2026-05-07 08:58 32.10278 34.95516 2037 ft 138 kts 206°
2026-05-07 08:59 32.09402 34.94979 1842 ft 143 kts 210°
2026-05-07 08:59 32.08551 34.94395 1630 ft 139 kts 209°
2026-05-07 08:59 32.07714 34.93848 1473 ft 140 kts 208°
2026-05-07 08:59 32.06859 34.93292 1273 ft 139 kts 208°
2026-05-07 09:00 32.06020 34.92747 1094 ft 138 kts 208°
2026-05-07 09:00 32.05185 34.92207 936 ft 138 kts 208°
2026-05-07 09:00 32.04335 34.91656 733 ft 139 kts 208°
2026-05-07 09:00 32.03497 34.91111 556 ft 137 kts 208°
2026-05-07 09:01 32.02658 34.90567 371 ft 138 kts 208°
2026-05-07 09:01 32.01825 34.90030 201 ft 139 kts 208°
2026-05-07 09:01 32.00993 34.89492 123 ft 127 kts 209°
2026-05-07 09:01 32.00409 34.89115 120 ft 54 kts 210°
2026-05-07 09:02 32.00177 34.88910 122 ft 37 kts 236°
2026-05-07 09:02 32.00098 34.88748 120 ft 21 kts 243°
2026-05-07 09:02 32.00131 34.88573 122 ft 30 kts 301°
2026-05-07 09:02 32.00250 34.88348 121 ft 34 kts 302°
2026-05-07 09:03 32.00369 34.88120 123 ft 32 kts 301°
2026-05-07 09:03 32.00465 34.87937 120 ft 15 kts 301°
2026-05-07 09:03 32.00453 34.87826 121 ft 15 kts 220°
2026-05-07 09:03 32.00363 34.87756 121 ft 15 kts 212°
2026-05-07 09:04 32.00271 34.87692 121 ft 15 kts 210°
2026-05-07 09:04 32.00179 34.87627 122 ft 15 kts 211°
2026-05-07 09:04 32.00087 34.87561 119 ft 15 kts 211°
2026-05-07 09:04 32.00036 34.87519 119 ft 6 kts 231°
2026-05-07 09:05 32.00038 34.87471 119 ft 6 kts 308°
2026-05-07 09:05 32.00065 34.87460 123 ft 3 kts 348°
2026-05-07 09:05 32.00082 34.87456 120 ft 2 kts 349°
2026-05-07 09:05 32.00086 34.87455 120 ft 0 kts 349°